GFSNW_prec_precacc24_234.txt.gz
Total_Precipitation_Accumulation
0.55 0.38 0.38 0.46 0.60 0.47 0.58 0.68 0.44 0.24 0.27 0.47 0.52 0.25 0.02 0.00 0.00 0.00 0.00 0.00 0.00 0.00 0.00 0.01 0.05 0.02 0.04 0.03 0.03 0.04 0.05 0.05 0.03 0.02 0.00 0.00 0.00 0.00 0.02 0.34 0.19 0.21 0.30 0.13
0.57 0.59 0.50 0.46 0.53 0.71 0.65 0.71 0.46 0.61 0.38 0.38 0.25 0.06 0.02 0.00 0.00 0.01 0.02 0.01 0.00 0.00 0.01 0.06 0.04 0.06 0.07 0.06 0.04 0.04 0.04 0.09 0.07 0.02 0.01 0.00 0.00 0.00 0.01 0.13 0.34 0.31 0.30 0.11
0.64 0.67 0.79 0.59 0.47 0.70 0.71 0.72 0.61 1.02 0.87 0.23 0.06 0.03 0.02 0.02 0.01 0.02 0.02 0.03 0.03 0.04 0.07 0.07 0.14 0.10 0.08 0.06 0.07 0.12 0.12 0.19 0.05 0.03 0.01 0.06 0.13 0.04 0.06 0.26 0.47 0.18 0.13 0.05
0.75 0.99 1.10 0.97 0.53 0.64 1.17 1.22 0.68 0.40 0.61 0.24 0.06 0.05 0.09 0.07 0.04 0.09 0.12 0.14 0.07 0.10 0.33 0.19 0.11 0.08 0.11 0.11 0.16 0.13 0.23 0.27 0.03 0.00 0.00 0.01 0.05 0.09 0.12 0.21 0.18 0.35 0.14 0.02
0.76 1.02 1.62 1.57 1.12 0.83 2.05 1.50 0.79 0.32 0.16 0.07 0.09 0.18 0.15 0.06 0.05 0.18 0.24 0.14 0.07 0.14 0.27 0.17 0.21 0.21 0.22 0.24 0.13 0.11 0.19 0.26 0.06 0.02 0.00 0.00 0.01 0.01 0.01 0.01 0.01 0.02 0.01 0.00
0.64 0.90 1.18 2.03 2.47 1.84 2.02 1.45 0.64 0.27 0.30 0.22 0.22 0.21 0.11 0.12 0.18 0.39 0.24 0.15 0.27 0.24 0.11 0.23 0.34 0.30 0.25 0.21 0.16 0.17 0.26 0.18 0.16 0.11 0.01 0.01 0.02 0.00 0.00 0.00 0.00 0.00 0.01 0.00
0.57 0.69 0.97 1.36 2.54 2.79 1.43 0.77 0.62 0.83 0.70 0.35 0.20 0.16 0.16 0.22 0.26 0.42 0.34 0.19 0.27 0.24 0.17 0.31 0.32 0.20 0.14 0.11 0.11 0.14 0.28 0.25 0.39 0.25 0.10 0.13 0.01 0.00 0.00 0.00 0.00 0.00 0.00 0.00
0.62 0.62 0.70 1.01 1.61 2.65 2.16 0.97 0.71 0.97 0.94 0.52 0.26 0.20 0.26 0.36 0.46 0.46 0.47 0.35 0.27 0.30 0.28 0.32 0.32 0.17 0.09 0.05 0.06 0.11 0.12 0.19 0.37 0.34 0.18 0.04 0.00 0.00 0.00 0.00 0.00 0.00 0.00 0.00
0.70 0.64 0.63 0.63 1.00 1.76 2.90 1.81 0.92 0.84 0.95 0.67 0.29 0.32 0.35 0.41 0.50 0.56 0.53 0.42 0.31 0.23 0.31 0.43 0.43 0.19 0.05 0.04 0.01 0.03 0.07 0.10 0.30 0.39 0.28 0.06 0.00 0.00 0.00 0.02 0.04 0.00 0.00 0.00
0.82 0.74 0.65 0.62 0.69 1.31 2.45 2.28 1.35 1.20 1.60 1.13 0.44 0.51 0.56 0.47 0.53 0.57 0.47 0.40 0.36 0.30 0.38 0.41 0.28 0.14 0.04 0.04 0.02 0.02 0.03 0.09 0.20 0.21 0.42 0.12 0.02 0.01 0.02 0.05 0.04 0.00 0.00 0.00
0.77 0.85 0.62 0.63 0.79 1.41 2.24 2.00 1.58 1.33 1.60 1.34 0.61 0.44 0.47 0.46 0.50 0.62 0.53 0.41 0.47 0.38 0.38 0.41 0.28 0.13 0.06 0.01 0.00 0.02 0.09 0.10 0.11 0.13 0.35 0.13 0.00 0.00 0.00 0.00 0.00 0.00 0.00 0.00
0.66 0.82 0.79 0.72 0.94 1.42 1.84 1.41 1.36 1.38 1.65 1.62 0.74 0.47 0.43 0.40 0.40 0.45 0.54 0.46 0.23 0.17 0.31 0.32 0.19 0.18 0.11 0.03 0.05 0.01 0.10 0.07 0.05 0.05 0.05 0.00 0.00 0.00 0.00 0.00 0.00 0.00 0.00 0.00
0.63 0.88 1.02 1.12 1.13 1.42 1.53 1.10 0.87 1.38 2.08 1.54 0.90 0.64 0.44 0.30 0.32 0.38 0.47 0.28 0.16 0.25 0.23 0.29 0.40 0.34 0.16 0.12 0.08 0.03 0.04 0.02 0.04 0.02 0.02 0.01 0.00 0.00 0.00 0.00 0.00 0.00 0.01 0.05
0.68 0.81 1.14 1.29 1.48 1.41 1.38 1.09 0.96 1.14 1.41 1.24 0.98 0.65 0.56 0.38 0.29 0.27 0.24 0.20 0.26 0.41 0.52 0.65 0.65 0.31 0.11 0.11 0.07 0.04 0.03 0.05 0.07 0.05 0.02 0.00 0.00 0.00 0.00 0.00 0.00 0.00 0.10 0.13
0.83 0.90 1.12 1.24 1.28 1.25 1.23 1.05 1.06 0.91 0.91 1.09 0.72 0.46 0.43 0.39 0.31 0.34 0.36 0.37 0.46 0.56 0.66 0.70 0.45 0.20 0.12 0.11 0.07 0.03 0.00 0.01 0.02 0.01 0.00 0.00 0.00 0.00 0.00 0.00 0.00 0.00 0.00 0.00
0.81 0.92 1.00 0.93 0.87 0.85 0.84 1.31 1.27 0.89 0.73 0.82 0.67 0.53 0.45 0.39 0.36 0.41 0.47 0.47 0.45 0.45 0.45 0.37 0.23 0.09 0.07 0.15 0.07 0.01 0.00 0.00 0.00 0.00 0.00 0.00 0.00 0.00 0.00 0.00 0.00 0.00 0.00 0.00
0.89 0.97 1.08 1.05 1.01 0.95 1.11 1.00 0.61 0.54 0.52 0.74 0.60 0.40 0.28 0.28 0.33 0.36 0.36 0.31 0.33 0.35 0.31 0.22 0.12 0.05 0.09 0.11 0.03 0.00 0.00 0.00 0.00 0.00 0.00 0.00 0.00 0.00 0.00 0.00 0.00 0.00 0.00 0.01
1.11 1.25 1.32 1.25 1.10 1.10 0.83 0.39 0.16 0.29 0.62 0.77 0.52 0.34 0.15 0.17 0.24 0.25 0.24 0.22 0.21 0.21 0.20 0.15 0.09 0.09 0.06 0.03 0.00 0.00 0.00 0.00 0.00 0.00 0.00 0.00 0.00 0.00 0.00 0.00 0.00 0.02 0.02 0.03
0.86 1.08 1.10 1.21 1.07 0.92 0.57 0.40 0.42 0.34 0.59 0.58 0.24 0.09 0.05 0.05 0.12 0.16 0.17 0.15 0.16 0.14 0.12 0.05 0.03 0.06 0.03 0.00 0.00 0.00 0.00 0.00 0.00 0.00 0.00 0.00 0.00 0.00 0.01 0.02 0.03 0.04 0.03 0.04
0.95 1.32 1.58 1.59 1.00 0.44 0.35 0.43 0.75 0.72 0.50 0.26 0.09 0.00 0.02 0.04 0.08 0.14 0.11 0.10 0.09 0.08 0.03 0.01 0.01 0.01 0.00 0.00 0.00 0.00 0.00 0.00 0.00 0.00 0.02 0.02 0.02 0.01 0.01 0.02 0.03 0.05 0.07 0.07
1.09 1.16 0.98 0.87 0.64 0.50 0.67 0.76 0.88 0.83 0.51 0.19 0.05 0.00 0.06 0.08 0.08 0.11 0.11 0.09 0.07 0.07 0.02 0.01 0.02 0.01 0.00 0.00 0.00 0.00 0.00 0.00 0.00 0.01 0.01 0.01 0.02 0.03 0.05 0.06 0.07 0.07 0.05 0.07
0.38 0.25 0.39 0.47 0.49 0.63 0.69 0.44 0.24 0.23 0.12 0.04 0.00 0.03 0.06 0.12 0.09 0.12 0.10 0.06 0.05 0.04 0.01 0.05 0.01 0.02 0.02 0.02 0.04 0.04 0.03 0.02 0.01 0.00 0.01 0.03 0.08 0.11 0.10 0.10 0.11 0.11 0.09 0.10
0.19 0.26 0.28 0.33 0.37 0.37 0.20 0.10 0.04 0.02 0.03 0.00 0.00 0.05 0.08 0.09 0.07 0.05 0.03 0.03 0.03 0.01 0.02 0.01 0.01 0.00 0.03 0.06 0.06 0.08 0.04 0.01 0.02 0.05 0.07 0.10 0.09 0.11 0.16 0.15 0.13 0.09 0.05 0.03
0.36 0.32 0.22 0.19 0.07 0.05 0.01 0.00 0.00 0.00 0.00 0.00 0.00 0.00 0.02 0.02 0.01 0.01 0.01 0.01 0.00 0.01 0.01 0.00 0.01 0.00 0.01 0.04 0.05 0.05 0.03 0.04 0.07 0.09 0.10 0.08 0.05 0.03 0.02 0.03 0.02 0.02 0.01 0.01
0.14 0.08 0.04 0.02 0.01 0.01 0.00 0.00 0.00 0.00 0.00 0.00 0.01 0.03 0.03 0.02 0.03 0.01 0.00 0.01 0.00 0.00 0.00 0.01 0.01 0.01 0.03 0.04 0.03 0.05 0.06 0.07 0.06 0.05 0.03 0.02 0.00 0.00 0.00 0.00 0.00 0.01 0.01 0.02
0.01 0.02 0.02 0.01 0.01 0.02 0.01 0.00 0.00 0.00 0.00 0.01 0.04 0.07 0.08 0.06 0.03 0.01 0.00 0.00 0.00 0.00 0.00 0.00 0.00 0.00 0.00 0.02 0.04 0.05 0.03 0.04 0.04 0.03 0.02 0.01 0.01 0.00 0.00 0.00 0.02 0.01 0.03 0.04
0.05 0.03 0.01 0.01 0.01 0.01 0.00 0.00 0.00 0.00 0.00 0.01 0.04 0.04 0.02 0.00 0.00 0.00 0.00 0.00 0.00 0.00 0.00 0.00 0.00 0.02 0.03 0.02 0.01 0.02 0.02 0.03 0.03 0.02 0.01 0.01 0.00 0.00 0.00 0.02 0.02 0.01 0.03 0.05

GFSNW_prec_precacc24_237.txt.gz
Total_Precipitation_Accumulation
0.49 0.38 0.39 0.46 0.60 0.47 0.57 0.65 0.40 0.21 0.30 0.58 0.50 0.24 0.02 0.00 0.00 0.00 0.00 0.00 0.00 0.00 0.00 0.01 0.05 0.02 0.04 0.04 0.04 0.07 0.08 0.08 0.05 0.06 0.03 0.01 0.00 0.00 0.02 0.28 0.15 0.16 0.20 0.09
0.46 0.57 0.52 0.47 0.53 0.70 0.63 0.63 0.38 0.55 0.35 0.39 0.23 0.04 0.02 0.00 0.00 0.00 0.01 0.01 0.00 0.00 0.01 0.06 0.03 0.06 0.07 0.06 0.05 0.06 0.07 0.11 0.07 0.03 0.01 0.00 0.00 0.00 0.00 0.10 0.27 0.27 0.24 0.09
0.46 0.59 0.80 0.61 0.48 0.69 0.64 0.56 0.50 1.01 0.94 0.22 0.05 0.02 0.02 0.01 0.00 0.00 0.01 0.01 0.02 0.03 0.06 0.05 0.12 0.09 0.08 0.07 0.09 0.14 0.13 0.19 0.08 0.05 0.02 0.06 0.13 0.04 0.05 0.18 0.36 0.13 0.08 0.02
0.48 0.69 1.00 0.99 0.53 0.61 0.97 0.85 0.45 0.33 0.59 0.26 0.06 0.03 0.03 0.02 0.01 0.02 0.04 0.07 0.05 0.10 0.29 0.16 0.09 0.08 0.10 0.11 0.17 0.16 0.26 0.32 0.12 0.05 0.00 0.01 0.05 0.09 0.11 0.17 0.12 0.28 0.08 0.02
0.44 0.63 1.10 1.40 1.05 0.64 1.48 0.88 0.46 0.15 0.07 0.03 0.06 0.08 0.04 0.01 0.01 0.05 0.14 0.10 0.06 0.12 0.22 0.15 0.19 0.20 0.21 0.24 0.16 0.18 0.28 0.33 0.10 0.02 0.00 0.00 0.01 0.01 0.01 0.01 0.01 0.02 0.01 0.00
0.48 0.60 0.77 1.41 1.99 1.43 1.48 1.04 0.44 0.15 0.09 0.06 0.09 0.06 0.03 0.03 0.08 0.21 0.13 0.08 0.19 0.17 0.08 0.19 0.30 0.29 0.23 0.19 0.14 0.13 0.21 0.14 0.11 0.09 0.01 0.01 0.02 0.00 0.00 0.00 0.00 0.00 0.01 0.00
0.50 0.56 0.72 0.94 1.97 2.36 1.10 0.57 0.46 0.52 0.33 0.16 0.08 0.06 0.09 0.12 0.16 0.27 0.24 0.15 0.23 0.21 0.16 0.30 0.31 0.19 0.13 0.10 0.11 0.13 0.22 0.19 0.32 0.22 0.10 0.14 0.01 0.00 0.00 0.00 0.00 0.00 0.00 0.00
0.60 0.57 0.58 0.76 1.15 2.20 1.87 0.70 0.43 0.64 0.60 0.31 0.14 0.14 0.20 0.27 0.34 0.35 0.38 0.30 0.25 0.29 0.28 0.32 0.32 0.18 0.09 0.05 0.07 0.11 0.12 0.20 0.39 0.40 0.22 0.04 0.00 0.00 0.00 0.00 0.00 0.00 0.00 0.00
0.70 0.58 0.52 0.47 0.81 1.56 2.58 1.51 0.73 0.69 0.81 0.56 0.25 0.28 0.31 0.34 0.40 0.46 0.48 0.40 0.30 0.23 0.31 0.44 0.44 0.20 0.06 0.04 0.01 0.03 0.07 0.10 0.31 0.42 0.31 0.07 0.00 0.00 0.00 0.01 0.02 0.00 0.00 0.00
0.76 0.69 0.55 0.48 0.55 1.17 2.27 2.04 1.19 1.06 1.42 0.95 0.35 0.45 0.50 0.44 0.50 0.56 0.47 0.40 0.36 0.30 0.40 0.44 0.30 0.15 0.04 0.05 0.02 0.02 0.03 0.09 0.21 0.23 0.47 0.14 0.00 0.00 0.00 0.02 0.02 0.00 0.00 0.00
0.69 0.78 0.59 0.59 0.70 1.28 2.14 1.88 1.49 1.27 1.53 1.26 0.58 0.42 0.46 0.47 0.51 0.62 0.53 0.42 0.47 0.39 0.41 0.46 0.31 0.14 0.06 0.01 0.00 0.02 0.09 0.13 0.16 0.19 0.45 0.16 0.00 0.00 0.00 0.00 0.00 0.00 0.00 0.00
0.65 0.78 0.76 0.71 0.92 1.40 1.82 1.40 1.33 1.37 1.63 1.56 0.74 0.47 0.43 0.40 0.40 0.46 0.55 0.47 0.24 0.18 0.32 0.33 0.19 0.19 0.12 0.04 0.05 0.01 0.15 0.11 0.07 0.13 0.08 0.00 0.00 0.00 0.00 0.00 0.00 0.00 0.00 0.00
0.61 0.82 0.98 1.09 1.12 1.42 1.57 1.14 0.87 1.37 2.07 1.54 0.90 0.64 0.44 0.31 0.33 0.38 0.47 0.29 0.18 0.28 0.28 0.33 0.45 0.38 0.17 0.13 0.11 0.04 0.09 0.08 0.16 0.11 0.08 0.01 0.01 0.01 0.00 0.00 0.00 0.00 0.00 0.01
0.69 0.82 1.14 1.29 1.49 1.44 1.49 1.21 0.98 1.14 1.41 1.24 0.98 0.65 0.56 0.39 0.30 0.28 0.24 0.20 0.26 0.41 0.53 0.67 0.71 0.38 0.16 0.16 0.12 0.11 0.11 0.15 0.18 0.15 0.05 0.02 0.01 0.00 0.00 0.00 0.00 0.00 0.00 0.01
0.85 0.93 1.15 1.27 1.31 1.31 1.42 1.17 1.07 0.91 0.91 1.09 0.72 0.46 0.43 0.39 0.31 0.34 0.36 0.37 0.47 0.57 0.69 0.78 0.54 0.29 0.22 0.25 0.19 0.13 0.03 0.03 0.06 0.05 0.01 0.02 0.01 0.00 0.00 0.00 0.00 0.00 0.00 0.00
0.84 0.95 1.05 0.97 0.93 1.07 1.14 1.60 1.36 0.89 0.73 0.82 0.67 0.53 0.45 0.39 0.36 0.41 0.47 0.47 0.46 0.46 0.48 0.42 0.29 0.15 0.13 0.29 0.18 0.02 0.00 0.00 0.00 0.00 0.00 0.00 0.00 0.00 0.00 0.00 0.00 0.00 0.00 0.00
0.94 1.01 1.12 1.11 1.15 1.25 1.38 1.21 0.70 0.54 0.52 0.75 0.60 0.40 0.28 0.28 0.33 0.37 0.36 0.31 0.33 0.36 0.35 0.28 0.17 0.10 0.15 0.23 0.08 0.00 0.00 0.00 0.00 0.00 0.00 0.00 0.00 0.00 0.00 0.00 0.00 0.00 0.00 0.01
1.17 1.28 1.38 1.35 1.33 1.40 1.05 0.41 0.16 0.29 0.63 0.78 0.53 0.34 0.15 0.17 0.24 0.25 0.24 0.22 0.21 0.23 0.22 0.18 0.12 0.15 0.14 0.09 0.01 0.00 0.00 0.01 0.00 0.00 0.00 0.00 0.00 0.00 0.00 0.00 0.00 0.02 0.02 0.03
0.93 1.14 1.22 1.49 1.43 1.32 0.77 0.42 0.42 0.34 0.60 0.59 0.24 0.09 0.05 0.05 0.13 0.16 0.17 0.16 0.17 0.17 0.15 0.07 0.05 0.11 0.06 0.01 0.00 0.01 0.01 0.01 0.00 0.00 0.00 0.00 0.00 0.00 0.01 0.02 0.03 0.04 0.03 0.04
1.06 1.55 2.00 2.24 1.47 0.57 0.45 0.55 0.83 0.79 0.55 0.27 0.09 0.00 0.02 0.04 0.08 0.15 0.12 0.11 0.10 0.11 0.04 0.02 0.03 0.02 0.00 0.00 0.00 0.01 0.00 0.00 0.00 0.00 0.02 0.02 0.02 0.01 0.01 0.02 0.03 0.05 0.07 0.07
1.44 1.70 1.39 1.19 0.78 0.55 0.82 1.00 1.15 1.03 0.58 0.21 0.05 0.00 0.06 0.08 0.08 0.11 0.11 0.08 0.07 0.07 0.02 0.01 0.02 0.01 0.00 0.00 0.01 0.00 0.00 0.00 0.00 0.01 0.01 0.01 0.02 0.03 0.05 0.06 0.07 0.07 0.05 0.07
0.60 0.43 0.60 0.64 0.59 0.82 0.89 0.60 0.32 0.34 0.15 0.04 0.00 0.03 0.06 0.12 0.09 0.12 0.10 0.06 0.05 0.04 0.01 0.03 0.01 0.00 0.00 0.00 0.00 0.00 0.00 0.01 0.01 0.00 0.01 0.03 0.08 0.11 0.10 0.10 0.11 0.11 0.09 0.10
0.23 0.31 0.34 0.41 0.56 0.49 0.28 0.18 0.05 0.04 0.05 0.01 0.00 0.05 0.08 0.09 0.07 0.06 0.03 0.04 0.03 0.01 0.02 0.01 0.01 0.00 0.00 0.00 0.00 0.02 0.01 0.00 0.02 0.04 0.07 0.10 0.09 0.10 0.14 0.14 0.12 0.09 0.05 0.03
0.42 0.39 0.28 0.23 0.12 0.06 0.01 0.00 0.00 0.00 0.00 0.00 0.00 0.00 0.02 0.03 0.03 0.02 0.01 0.01 0.01 0.02 0.01 0.00 0.01 0.00 0.00 0.01 0.02 0.03 0.02 0.03 0.06 0.09 0.10 0.08 0.05 0.02 0.02 0.03 0.02 0.02 0.01 0.01
0.16 0.08 0.05 0.02 0.02 0.01 0.00 0.00 0.00 0.00 0.00 0.00 0.01 0.03 0.03 0.02 0.03 0.01 0.00 0.01 0.00 0.00 0.00 0.01 0.01 0.00 0.00 0.01 0.03 0.04 0.05 0.06 0.06 0.05 0.03 0.02 0.00 0.00 0.00 0.00 0.00 0.01 0.01 0.02
0.02 0.03 0.03 0.01 0.01 0.02 0.01 0.00 0.00 0.00 0.00 0.01 0.04 0.09 0.09 0.07 0.03 0.01 0.00 0.00 0.00 0.00 0.00 0.00 0.00 0.00 0.00 0.02 0.04 0.05 0.03 0.04 0.04 0.03 0.02 0.01 0.01 0.00 0.00 0.00 0.02 0.01 0.03 0.03
0.07 0.03 0.01 0.01 0.01 0.01 0.01 0.00 0.00 0.00 0.00 0.02 0.07 0.07 0.03 0.00 0.00 0.00 0.00 0.00 0.00 0.00 0.00 0.00 0.00 0.01 0.02 0.02 0.01 0.01 0.02 0.03 0.03 0.02 0.01 0.01 0.00 0.00 0.00 0.02 0.02 0.01 0.03 0.04

GFSNW_prec_precacc24_243.txt.gz
Total_Precipitation_Accumulation
0.20 0.19 0.33 0.46 0.60 0.47 0.55 0.62 0.37 0.21 0.31 0.59 0.48 0.22 0.01 0.00 0.00 0.00 0.00 0.00 0.00 0.00 0.00 0.00 0.05 0.01 0.04 0.04 0.04 0.06 0.08 0.06 0.04 0.06 0.04 0.03 0.03 0.07 0.07 0.16 0.12 0.08 0.09 0.05
0.19 0.27 0.30 0.46 0.55 0.70 0.61 0.59 0.35 0.53 0.32 0.37 0.23 0.04 0.02 0.00 0.00 0.00 0.00 0.00 0.00 0.00 0.01 0.04 0.02 0.05 0.07 0.06 0.04 0.04 0.07 0.09 0.10 0.10 0.04 0.03 0.04 0.02 0.02 0.05 0.17 0.18 0.14 0.05
0.19 0.28 0.45 0.48 0.50 0.69 0.63 0.54 0.45 0.96 0.92 0.17 0.06 0.04 0.03 0.03 0.00 0.00 0.00 0.00 0.01 0.02 0.04 0.03 0.07 0.05 0.06 0.05 0.08 0.08 0.10 0.15 0.11 0.10 0.06 0.10 0.19 0.11 0.08 0.17 0.33 0.10 0.05 0.01
0.16 0.28 0.48 0.70 0.53 0.62 0.96 0.84 0.43 0.31 0.57 0.24 0.07 0.06 0.03 0.02 0.01 0.00 0.00 0.01 0.03 0.05 0.08 0.05 0.05 0.06 0.06 0.07 0.11 0.12 0.21 0.25 0.12 0.10 0.09 0.11 0.11 0.06 0.04 0.07 0.05 0.10 0.03 0.00
0.17 0.29 0.44 0.82 0.89 0.66 1.43 0.86 0.44 0.13 0.06 0.03 0.06 0.08 0.04 0.02 0.01 0.00 0.01 0.00 0.01 0.03 0.07 0.08 0.10 0.11 0.13 0.15 0.12 0.15 0.22 0.24 0.09 0.02 0.00 0.01 0.02 0.00 0.00 0.01 0.01 0.01 0.01 0.00
0.21 0.24 0.31 0.60 1.22 1.17 1.24 0.97 0.42 0.14 0.07 0.04 0.08 0.04 0.02 0.01 0.02 0.02 0.00 0.00 0.03 0.04 0.03 0.09 0.15 0.16 0.14 0.12 0.08 0.09 0.14 0.11 0.10 0.08 0.01 0.01 0.02 0.00 0.00 0.00 0.00 0.00 0.01 0.00
0.24 0.25 0.28 0.40 0.79 1.55 0.91 0.52 0.45 0.48 0.22 0.06 0.04 0.02 0.03 0.02 0.02 0.02 0.02 0.02 0.04 0.05 0.05 0.13 0.18 0.13 0.10 0.08 0.08 0.09 0.16 0.13 0.24 0.20 0.10 0.16 0.01 0.00 0.00 0.00 0.00 0.00 0.00 0.00
0.25 0.31 0.27 0.31 0.47 1.09 1.25 0.51 0.33 0.46 0.34 0.15 0.04 0.03 0.04 0.06 0.06 0.08 0.10 0.08 0.07 0.11 0.15 0.26 0.30 0.17 0.09 0.05 0.06 0.08 0.06 0.14 0.36 0.39 0.24 0.05 0.00 0.00 0.00 0.00 0.00 0.00 0.00 0.00
0.34 0.30 0.31 0.22 0.33 0.65 1.50 0.92 0.45 0.40 0.37 0.17 0.10 0.10 0.07 0.08 0.12 0.14 0.16 0.16 0.12 0.15 0.26 0.40 0.42 0.20 0.06 0.04 0.01 0.03 0.06 0.10 0.33 0.43 0.38 0.09 0.00 0.00 0.00 0.00 0.00 0.00 0.00 0.00
0.41 0.39 0.30 0.23 0.21 0.52 1.33 1.32 0.66 0.52 0.66 0.31 0.07 0.17 0.18 0.12 0.17 0.23 0.22 0.19 0.23 0.27 0.39 0.46 0.31 0.15 0.04 0.05 0.02 0.02 0.03 0.10 0.23 0.26 0.56 0.17 0.00 0.00 0.00 0.04 0.03 0.00 0.00 0.00
0.40 0.42 0.31 0.28 0.23 0.63 1.41 1.29 0.98 0.71 0.78 0.59 0.22 0.13 0.18 0.21 0.32 0.44 0.39 0.34 0.44 0.39 0.43 0.48 0.32 0.15 0.06 0.01 0.00 0.02 0.09 0.14 0.17 0.21 0.52 0.20 0.00 0.00 0.00 0.01 0.00 0.00 0.00 0.00
0.36 0.38 0.40 0.31 0.35 0.82 1.41 1.12 0.98 0.97 1.05 1.01 0.50 0.29 0.25 0.25 0.31 0.43 0.52 0.46 0.24 0.18 0.32 0.33 0.19 0.19 0.12 0.04 0.05 0.01 0.15 0.11 0.07 0.17 0.13 0.01 0.02 0.02 0.02 0.00 0.00 0.00 0.00 0.01
0.38 0.33 0.46 0.48 0.60 0.95 1.25 0.96 0.67 1.06 1.63 1.12 0.62 0.49 0.36 0.28 0.33 0.39 0.50 0.32 0.21 0.31 0.30 0.37 0.51 0.44 0.20 0.14 0.11 0.04 0.09 0.09 0.21 0.19 0.16 0.07 0.08 0.05 0.01 0.01 0.01 0.02 0.02 0.01
0.44 0.40 0.59 0.83 1.00 0.98 1.16 1.06 0.80 0.90 1.14 0.95 0.79 0.60 0.54 0.38 0.30 0.28 0.25 0.21 0.27 0.43 0.56 0.71 0.77 0.46 0.23 0.20 0.13 0.12 0.13 0.19 0.29 0.31 0.15 0.15 0.08 0.01 0.01 0.01 0.01 0.00 0.00 0.00
0.48 0.59 0.73 0.87 0.91 0.95 1.18 1.05 0.92 0.79 0.77 0.95 0.66 0.44 0.43 0.39 0.31 0.35 0.38 0.38 0.47 0.58 0.69 0.78 0.57 0.31 0.23 0.26 0.20 0.14 0.04 0.05 0.16 0.16 0.03 0.06 0.05 0.01 0.00 0.00 0.00 0.00 0.00 0.00
0.47 0.66 0.76 0.70 0.72 0.99 1.28 2.11 1.68 0.93 0.72 0.82 0.68 0.53 0.45 0.39 0.36 0.41 0.47 0.48 0.48 0.49 0.51 0.44 0.29 0.15 0.13 0.29 0.18 0.03 0.00 0.00 0.00 0.01 0.01 0.03 0.04 0.01 0.00 0.00 0.00 0.00 0.00 0.00
0.62 0.80 0.99 1.03 1.09 1.32 1.72 1.64 0.95 0.60 0.53 0.92 0.81 0.45 0.28 0.28 0.33 0.37 0.36 0.31 0.34 0.37 0.37 0.32 0.20 0.12 0.19 0.27 0.10 0.00 0.00 0.00 0.00 0.00 0.01 0.05 0.03 0.02 0.00 0.00 0.00 0.00 0.00 0.01
1.06 1.27 1.40 1.44 1.53 1.72 1.53 0.56 0.17 0.29 0.71 1.11 0.77 0.43 0.16 0.17 0.24 0.25 0.24 0.22 0.21 0.23 0.22 0.19 0.13 0.16 0.17 0.13 0.01 0.00 0.00 0.01 0.01 0.00 0.00 0.00 0.02 0.01 0.00 0.00 0.00 0.02 0.02 0.03
0.99 1.23 1.40 1.92 2.10 2.15 1.27 0.54 0.45 0.35 0.78 0.86 0.34 0.11 0.05 0.05 0.13 0.16 0.17 0.16 0.17 0.17 0.15 0.07 0.06 0.12 0.07 0.01 0.00 0.01 0.01 0.01 0.00 0.00 0.00 0.00 0.00 0.00 0.01 0.02 0.03 0.04 0.03 0.04
1.26 1.98 3.05 3.77 2.57 0.97 0.64 0.97 1.43 1.35 0.96 0.37 0.10 0.00 0.03 0.04 0.08 0.15 0.12 0.12 0.10 0.11 0.04 0.02 0.05 0.02 0.00 0.00 0.00 0.01 0.00 0.00 0.00 0.00 0.01 0.01 0.01 0.01 0.01 0.02 0.03 0.05 0.07 0.07
2.34 3.02 2.46 1.90 1.09 0.73 1.12 1.86 2.06 1.76 1.05 0.33 0.05 0.00 0.06 0.08 0.08 0.11 0.11 0.10 0.09 0.09 0.02 0.02 0.03 0.00 0.00 0.00 0.01 0.00 0.00 0.00 0.00 0.00 0.00 0.01 0.02 0.03 0.05 0.06 0.07 0.07 0.05 0.06
1.30 0.84 1.23 1.20 0.81 1.28 1.52 1.09 0.77 0.55 0.22 0.05 0.00 0.03 0.06 0.12 0.09 0.12 0.10 0.07 0.06 0.05 0.02 0.06 0.02 0.00 0.00 0.00 0.00 0.00 0.00 0.00 0.00 0.00 0.01 0.03 0.08 0.11 0.09 0.07 0.07 0.06 0.03 0.04
0.34 0.53 1.00 0.78 0.95 0.87 0.62 0.41 0.22 0.06 0.06 0.02 0.00 0.05 0.08 0.09 0.07 0.06 0.03 0.04 0.04 0.02 0.03 0.02 0.01 0.00 0.01 0.00 0.00 0.00 0.00 0.00 0.01 0.04 0.07 0.09 0.07 0.05 0.04 0.04 0.02 0.01 0.01 0.01
0.73 0.82 0.59 0.39 0.20 0.14 0.03 0.01 0.00 0.00 0.00 0.00 0.00 0.00 0.02 0.03 0.03 0.02 0.01 0.01 0.02 0.05 0.01 0.00 0.01 0.01 0.01 0.00 0.00 0.01 0.01 0.03 0.05 0.06 0.07 0.06 0.03 0.01 0.00 0.01 0.01 0.01 0.01 0.01
0.35 0.16 0.09 0.04 0.02 0.01 0.00 0.00 0.00 0.00 0.00 0.00 0.01 0.03 0.03 0.02 0.03 0.01 0.00 0.03 0.02 0.00 0.00 0.01 0.01 0.01 0.00 0.00 0.01 0.01 0.01 0.01 0.02 0.02 0.01 0.01 0.00 0.00 0.00 0.00 0.00 0.01 0.01 0.02
0.05 0.03 0.03 0.01 0.01 0.02 0.01 0.00 0.00 0.00 0.00 0.01 0.05 0.10 0.10 0.07 0.03 0.02 0.00 0.00 0.00 0.00 0.01 0.01 0.00 0.00 0.00 0.01 0.01 0.01 0.00 0.00 0.00 0.00 0.00 0.00 0.00 0.00 0.00 0.00 0.01 0.01 0.01 0.02
0.07 0.03 0.01 0.01 0.01 0.01 0.01 0.00 0.00 0.00 0.00 0.02 0.07 0.08 0.04 0.01 0.01 0.00 0.00 0.00 0.00 0.00 0.00 0.00 0.00 0.00 0.00 0.00 0.00 0.00 0.00 0.00 0.00 0.00 0.00 0.00 0.00 0.00 0.00 0.00 0.00 0.00 0.00 0.01

GFSNW_prec_precacc24_246.txt.gz
Total_Precipitation_Accumulation
0.00 0.01 0.09 0.15 0.42 0.39 0.51 0.61 0.35 0.21 0.31 0.58 0.49 0.23 0.01 0.00 0.00 0.00 0.00 0.00 0.00 0.00 0.00 0.00 0.05 0.01 0.04 0.04 0.04 0.06 0.08 0.06 0.04 0.06 0.04 0.03 0.03 0.07 0.09 0.22 0.16 0.09 0.08 0.05
0.01 0.01 0.06 0.22 0.40 0.61 0.60 0.57 0.35 0.50 0.33 0.37 0.22 0.04 0.02 0.01 0.00 0.00 0.00 0.00 0.00 0.00 0.01 0.04 0.02 0.05 0.07 0.06 0.04 0.04 0.07 0.11 0.12 0.10 0.05 0.03 0.04 0.02 0.02 0.05 0.14 0.15 0.11 0.04
0.02 0.02 0.10 0.21 0.36 0.60 0.63 0.54 0.45 0.91 0.88 0.16 0.06 0.04 0.03 0.03 0.00 0.00 0.00 0.00 0.01 0.02 0.03 0.02 0.04 0.05 0.06 0.05 0.07 0.06 0.10 0.14 0.11 0.10 0.06 0.09 0.17 0.11 0.08 0.16 0.29 0.09 0.04 0.00
0.03 0.03 0.12 0.22 0.33 0.52 0.95 0.83 0.43 0.30 0.53 0.21 0.07 0.06 0.04 0.02 0.02 0.00 0.00 0.01 0.03 0.04 0.04 0.02 0.04 0.06 0.05 0.04 0.04 0.07 0.15 0.20 0.11 0.09 0.09 0.11 0.10 0.05 0.02 0.05 0.04 0.08 0.03 0.00
0.06 0.07 0.12 0.36 0.36 0.56 1.43 0.86 0.44 0.13 0.06 0.04 0.06 0.08 0.05 0.02 0.01 0.00 0.00 0.00 0.01 0.02 0.04 0.06 0.06 0.07 0.09 0.11 0.08 0.11 0.16 0.19 0.08 0.02 0.00 0.01 0.02 0.00 0.00 0.01 0.00 0.01 0.00 0.00
0.04 0.07 0.10 0.24 0.42 0.79 1.23 0.97 0.42 0.14 0.07 0.05 0.09 0.04 0.02 0.02 0.02 0.01 0.00 0.00 0.02 0.03 0.02 0.05 0.09 0.09 0.06 0.06 0.04 0.05 0.08 0.08 0.09 0.07 0.01 0.01 0.02 0.00 0.00 0.00 0.00 0.00 0.01 0.00
0.07 0.08 0.12 0.17 0.27 0.77 0.84 0.52 0.45 0.48 0.22 0.06 0.04 0.02 0.03 0.02 0.02 0.02 0.01 0.02 0.03 0.02 0.02 0.05 0.07 0.05 0.04 0.04 0.05 0.05 0.09 0.09 0.21 0.18 0.10 0.16 0.01 0.00 0.00 0.00 0.00 0.00 0.00 0.00
0.08 0.09 0.12 0.17 0.21 0.57 0.88 0.48 0.33 0.46 0.34 0.15 0.04 0.03 0.04 0.04 0.05 0.07 0.07 0.05 0.03 0.04 0.07 0.14 0.20 0.13 0.07 0.03 0.04 0.03 0.03 0.11 0.33 0.38 0.24 0.05 0.00 0.00 0.00 0.00 0.00 0.00 0.00 0.00
0.09 0.09 0.15 0.16 0.21 0.45 0.93 0.75 0.44 0.40 0.37 0.16 0.10 0.10 0.06 0.05 0.06 0.06 0.07 0.07 0.04 0.06 0.14 0.28 0.34 0.18 0.06 0.04 0.01 0.03 0.04 0.09 0.32 0.43 0.39 0.09 0.00 0.00 0.00 0.00 0.01 0.00 0.00 0.00
0.10 0.12 0.16 0.16 0.15 0.37 0.83 0.96 0.61 0.50 0.57 0.24 0.06 0.15 0.15 0.06 0.07 0.07 0.06 0.06 0.11 0.17 0.31 0.41 0.29 0.15 0.04 0.05 0.02 0.02 0.03 0.09 0.23 0.27 0.58 0.18 0.00 0.00 0.00 0.05 0.04 0.00 0.00 0.00
0.14 0.14 0.14 0.20 0.16 0.38 0.82 0.95 0.84 0.66 0.64 0.42 0.15 0.07 0.11 0.11 0.16 0.23 0.20 0.18 0.29 0.31 0.41 0.47 0.32 0.15 0.06 0.01 0.00 0.02 0.09 0.14 0.17 0.21 0.53 0.20 0.00 0.00 0.00 0.01 0.00 0.00 0.00 0.00
0.22 0.18 0.19 0.19 0.23 0.41 1.00 0.87 0.74 0.87 0.84 0.68 0.29 0.16 0.11 0.13 0.19 0.29 0.37 0.36 0.23 0.18 0.32 0.32 0.19 0.19 0.13 0.04 0.06 0.01 0.15 0.11 0.07 0.17 0.13 0.01 0.02 0.02 0.02 0.00 0.00 0.00 0.00 0.01
0.27 0.23 0.30 0.30 0.31 0.48 0.95 0.80 0.51 0.82 1.26 0.78 0.39 0.30 0.21 0.18 0.25 0.32 0.44 0.30 0.22 0.31 0.31 0.38 0.52 0.45 0.20 0.14 0.11 0.04 0.09 0.09 0.21 0.19 0.16 0.07 0.08 0.05 0.01 0.01 0.01 0.02 0.02 0.01
0.33 0.29 0.38 0.49 0.57 0.60 0.90 0.88 0.56 0.69 0.93 0.68 0.51 0.39 0.40 0.33 0.28 0.25 0.23 0.20 0.27 0.44 0.57 0.72 0.78 0.47 0.23 0.21 0.14 0.13 0.14 0.19 0.29 0.31 0.15 0.15 0.08 0.01 0.01 0.01 0.01 0.00 0.01 0.00
0.38 0.38 0.47 0.60 0.68 0.76 0.99 0.85 0.65 0.58 0.60 0.68 0.42 0.31 0.37 0.37 0.31 0.35 0.38 0.38 0.47 0.58 0.69 0.79 0.58 0.33 0.25 0.28 0.21 0.15 0.05 0.06 0.16 0.16 0.03 0.06 0.05 0.01 0.00 0.00 0.00 0.00 0.00 0.00
0.35 0.44 0.51 0.44 0.50 0.87 1.18 1.90 1.42 0.76 0.53 0.64 0.57 0.47 0.43 0.38 0.36 0.41 0.47 0.48 0.48 0.49 0.51 0.44 0.29 0.15 0.14 0.30 0.19 0.03 0.00 0.00 0.00 0.01 0.01 0.03 0.04 0.01 0.00 0.00 0.00 0.00 0.00 0.00
0.36 0.44 0.64 0.74 0.89 1.17 1.55 1.50 0.85 0.56 0.48 0.85 0.87 0.47 0.27 0.28 0.33 0.37 0.36 0.31 0.34 0.37 0.37 0.32 0.20 0.12 0.19 0.27 0.10 0.00 0.00 0.00 0.00 0.00 0.01 0.05 0.04 0.02 0.00 0.00 0.00 0.00 0.00 0.01
0.63 0.90 1.14 1.27 1.48 1.71 1.49 0.55 0.15 0.27 0.72 1.14 0.88 0.50 0.18 0.17 0.24 0.25 0.24 0.22 0.22 0.23 0.22 0.19 0.13 0.16 0.17 0.13 0.01 0.00 0.00 0.01 0.01 0.00 0.00 0.00 0.02 0.01 0.00 0.00 0.00 0.01 0.02 0.03
0.76 1.09 1.34 1.94 2.18 2.18 1.27 0.58 0.51 0.38 0.80 0.99 0.45 0.13 0.08 0.05 0.13 0.16 0.18 0.16 0.17 0.17 0.15 0.07 0.06 0.12 0.07 0.01 0.00 0.01 0.01 0.01 0.00 0.00 0.00 0.00 0.00 0.00 0.00 0.01 0.02 0.03 0.03 0.04
1.23 2.05 3.36 4.26 2.83 1.00 0.69 1.09 1.78 1.66 1.12 0.41 0.11 0.00 0.03 0.04 0.08 0.15 0.13 0.12 0.11 0.12 0.04 0.02 0.05 0.02 0.00 0.00 0.00 0.01 0.00 0.00 0.00 0.00 0.01 0.01 0.01 0.01 0.01 0.02 0.03 0.04 0.07 0.07
2.68 3.52 2.90 2.12 1.13 0.80 1.23 2.07 2.40 2.29 1.39 0.45 0.06 0.00 0.07 0.08 0.08 0.11 0.11 0.10 0.09 0.09 0.02 0.02 0.03 0.00 0.00 0.00 0.01 0.00 0.00 0.00 0.00 0.00 0.00 0.01 0.02 0.03 0.05 0.06 0.07 0.07 0.05 0.05
1.76 1.05 1.43 1.46 0.88 1.43 1.84 1.25 0.96 0.75 0.41 0.12 0.00 0.03 0.06 0.12 0.09 0.12 0.10 0.07 0.06 0.05 0.02 0.08 0.02 0.00 0.00 0.00 0.00 0.00 0.00 0.00 0.00 0.00 0.01 0.03 0.06 0.09 0.08 0.07 0.06 0.04 0.01 0.02
0.47 0.67 1.27 1.01 1.09 1.05 0.82 0.51 0.35 0.14 0.10 0.02 0.00 0.05 0.08 0.09 0.07 0.06 0.03 0.04 0.04 0.02 0.04 0.02 0.01 0.00 0.01 0.00 0.00 0.00 0.00 0.00 0.00 0.01 0.02 0.04 0.03 0.02 0.03 0.03 0.02 0.01 0.01 0.00
0.90 1.05 0.81 0.49 0.25 0.17 0.03 0.01 0.00 0.01 0.00 0.00 0.00 0.00 0.02 0.03 0.03 0.02 0.01 0.02 0.02 0.05 0.02 0.00 0.01 0.01 0.01 0.00 0.00 0.00 0.00 0.00 0.00 0.01 0.01 0.00 0.00 0.00 0.00 0.00 0.00 0.01 0.00 0.01
0.45 0.26 0.15 0.06 0.02 0.00 0.00 0.00 0.00 0.00 0.00 0.00 0.01 0.03 0.03 0.02 0.03 0.01 0.00 0.03 0.02 0.00 0.00 0.01 0.01 0.01 0.00 0.00 0.00 0.00 0.00 0.00 0.00 0.00 0.00 0.00 0.00 0.00 0.00 0.00 0.00 0.01 0.00 0.01
0.08 0.06 0.04 0.02 0.01 0.02 0.01 0.00 0.00 0.00 0.00 0.01 0.05 0.10 0.10 0.07 0.03 0.02 0.00 0.00 0.00 0.00 0.01 0.01 0.00 0.00 0.00 0.00 0.00 0.00 0.00 0.00 0.00 0.00 0.00 0.00 0.00 0.00 0.00 0.00 0.00 0.00 0.00 0.01
0.09 0.04 0.01 0.02 0.01 0.01 0.01 0.00 0.00 0.00 0.00 0.02 0.07 0.08 0.04 0.01 0.01 0.00 0.00 0.00 0.00 0.00 0.00 0.00 0.00 0.00 0.00 0.00 0.00 0.00 0.00 0.00 0.00 0.00 0.00 0.00 0.00 0.00 0.00 0.00 0.00 0.00 0.00 0.00

GFSNW_prec_precacc24_249.txt.gz
Total_Precipitation_Accumulation
0.00 0.00 0.00 0.01 0.01 0.02 0.24 0.49 0.28 0.18 0.27 0.57 0.49 0.23 0.01 0.00 0.00 0.00 0.00 0.00 0.00 0.00 0.00 0.00 0.05 0.01 0.04 0.04 0.04 0.06 0.08 0.06 0.04 0.06 0.04 0.03 0.03 0.08 0.10 0.22 0.16 0.09 0.09 0.04
0.01 0.01 0.02 0.03 0.04 0.02 0.16 0.42 0.30 0.46 0.31 0.36 0.22 0.04 0.02 0.01 0.00 0.00 0.00 0.00 0.00 0.00 0.01 0.03 0.02 0.05 0.07 0.06 0.04 0.06 0.08 0.14 0.14 0.14 0.08 0.05 0.05 0.03 0.02 0.04 0.12 0.13 0.10 0.03
0.02 0.01 0.02 0.04 0.06 0.02 0.16 0.33 0.37 0.82 0.88 0.15 0.06 0.04 0.04 0.04 0.00 0.00 0.00 0.00 0.01 0.02 0.03 0.02 0.04 0.05 0.07 0.05 0.07 0.06 0.07 0.09 0.11 0.11 0.07 0.09 0.16 0.10 0.08 0.14 0.24 0.08 0.02 0.00
0.03 0.03 0.04 0.06 0.07 0.06 0.30 0.54 0.32 0.27 0.51 0.20 0.05 0.06 0.04 0.03 0.02 0.00 0.00 0.00 0.03 0.04 0.04 0.01 0.04 0.06 0.05 0.04 0.04 0.07 0.10 0.13 0.10 0.09 0.09 0.11 0.10 0.04 0.02 0.04 0.04 0.05 0.02 0.00
0.06 0.07 0.07 0.12 0.11 0.18 0.54 0.58 0.39 0.12 0.05 0.04 0.05 0.07 0.05 0.02 0.02 0.00 0.00 0.00 0.01 0.02 0.04 0.06 0.06 0.06 0.08 0.11 0.08 0.10 0.12 0.12 0.05 0.02 0.00 0.01 0.02 0.00 0.00 0.00 0.00 0.00 0.00 0.00
0.04 0.06 0.07 0.12 0.14 0.29 0.44 0.57 0.39 0.13 0.06 0.05 0.09 0.04 0.02 0.02 0.02 0.01 0.00 0.00 0.02 0.03 0.02 0.04 0.08 0.08 0.06 0.06 0.04 0.03 0.03 0.03 0.05 0.05 0.01 0.01 0.02 0.00 0.00 0.00 0.00 0.00 0.00 0.00
0.07 0.08 0.10 0.09 0.07 0.14 0.29 0.28 0.38 0.45 0.22 0.06 0.04 0.02 0.03 0.02 0.02 0.02 0.02 0.02 0.03 0.01 0.02 0.03 0.03 0.03 0.02 0.01 0.02 0.03 0.04 0.04 0.16 0.16 0.10 0.15 0.01 0.00 0.00 0.00 0.00 0.00 0.00 0.00
0.08 0.09 0.11 0.09 0.05 0.16 0.35 0.26 0.27 0.43 0.34 0.14 0.04 0.02 0.03 0.04 0.05 0.07 0.07 0.05 0.03 0.04 0.05 0.07 0.09 0.06 0.04 0.01 0.01 0.01 0.01 0.06 0.27 0.36 0.23 0.05 0.00 0.00 0.00 0.00 0.00 0.00 0.00 0.00
0.09 0.08 0.10 0.10 0.07 0.21 0.31 0.35 0.36 0.39 0.36 0.16 0.10 0.09 0.05 0.04 0.05 0.07 0.10 0.07 0.02 0.03 0.08 0.15 0.17 0.11 0.04 0.04 0.01 0.01 0.02 0.05 0.25 0.39 0.38 0.09 0.00 0.00 0.00 0.00 0.01 0.00 0.00 0.00
0.08 0.10 0.08 0.09 0.08 0.19 0.32 0.34 0.39 0.48 0.54 0.23 0.06 0.15 0.14 0.06 0.09 0.09 0.07 0.05 0.06 0.12 0.21 0.28 0.19 0.09 0.03 0.05 0.02 0.02 0.02 0.06 0.18 0.24 0.56 0.18 0.00 0.00 0.00 0.06 0.05 0.00 0.00 0.00
0.10 0.11 0.09 0.09 0.09 0.19 0.34 0.39 0.46 0.54 0.55 0.33 0.14 0.07 0.11 0.12 0.17 0.23 0.15 0.11 0.15 0.19 0.29 0.35 0.27 0.14 0.06 0.01 0.00 0.02 0.09 0.13 0.17 0.21 0.51 0.20 0.00 0.00 0.00 0.02 0.00 0.00 0.00 0.00
0.13 0.12 0.10 0.10 0.11 0.18 0.43 0.54 0.43 0.67 0.67 0.48 0.18 0.12 0.07 0.08 0.11 0.18 0.21 0.19 0.14 0.12 0.22 0.25 0.18 0.19 0.13 0.04 0.05 0.01 0.15 0.11 0.08 0.17 0.13 0.01 0.02 0.02 0.02 0.00 0.00 0.00 0.00 0.01
0.14 0.13 0.13 0.11 0.11 0.17 0.48 0.53 0.36 0.58 1.02 0.59 0.28 0.21 0.12 0.09 0.12 0.17 0.29 0.20 0.17 0.26 0.28 0.37 0.52 0.44 0.21 0.14 0.11 0.05 0.09 0.09 0.21 0.19 0.16 0.07 0.08 0.05 0.01 0.01 0.01 0.02 0.02 0.01
0.16 0.15 0.17 0.15 0.13 0.21 0.57 0.65 0.44 0.51 0.78 0.57 0.33 0.21 0.23 0.16 0.14 0.15 0.16 0.17 0.23 0.40 0.54 0.74 0.80 0.50 0.25 0.22 0.15 0.14 0.15 0.21 0.29 0.32 0.15 0.15 0.08 0.01 0.01 0.01 0.01 0.00 0.01 0.00
0.17 0.18 0.22 0.23 0.25 0.46 0.77 0.68 0.47 0.42 0.45 0.48 0.22 0.15 0.20 0.22 0.22 0.27 0.32 0.33 0.45 0.59 0.71 0.82 0.61 0.36 0.27 0.28 0.22 0.15 0.05 0.06 0.17 0.16 0.03 0.06 0.05 0.01 0.00 0.00 0.00 0.00 0.00 0.00
0.20 0.23 0.34 0.34 0.39 0.80 1.08 1.56 1.05 0.55 0.36 0.46 0.44 0.31 0.32 0.32 0.32 0.37 0.45 0.47 0.49 0.51 0.53 0.45 0.30 0.15 0.14 0.31 0.19 0.03 0.00 0.00 0.00 0.01 0.01 0.03 0.04 0.01 0.00 0.00 0.00 0.00 0.00 0.00
0.27 0.29 0.43 0.49 0.59 0.93 1.22 1.19 0.71 0.49 0.40 0.66 0.77 0.40 0.21 0.24 0.31 0.36 0.36 0.31 0.34 0.39 0.39 0.32 0.21 0.13 0.20 0.28 0.10 0.00 0.00 0.00 0.00 0.00 0.01 0.05 0.04 0.02 0.00 0.00 0.00 0.00 0.00 0.00
0.46 0.60 0.78 0.96 1.29 1.54 1.31 0.47 0.10 0.16 0.54 0.96 0.78 0.45 0.16 0.17 0.23 0.25 0.25 0.23 0.22 0.24 0.23 0.20 0.13 0.16 0.18 0.13 0.01 0.00 0.00 0.01 0.01 0.00 0.00 0.00 0.02 0.01 0.00 0.00 0.00 0.00 0.01 0.01
0.55 0.81 1.15 1.87 2.16 2.03 1.15 0.55 0.50 0.36 0.72 0.97 0.47 0.12 0.07 0.05 0.13 0.17 0.18 0.17 0.18 0.18 0.16 0.07 0.06 0.12 0.07 0.01 0.00 0.01 0.01 0.01 0.00 0.00 0.00 0.00 0.00 0.00 0.00 0.00 0.01 0.02 0.02 0.03
1.01 1.94 3.26 4.20 2.72 0.94 0.68 1.12 1.95 1.82 1.18 0.45 0.16 0.01 0.04 0.05 0.09 0.16 0.13 0.13 0.12 0.13 0.04 0.02 0.05 0.02 0.00 0.00 0.00 0.01 0.00 0.00 0.00 0.00 0.01 0.00 0.01 0.00 0.00 0.01 0.02 0.03 0.06 0.06
2.63 3.61 2.99 2.11 1.10 0.84 1.27 2.26 2.59 2.59 1.57 0.51 0.06 0.02 0.07 0.08 0.08 0.12 0.12 0.10 0.09 0.09 0.03 0.02 0.03 0.00 0.00 0.00 0.01 0.00 0.00 0.00 0.00 0.00 0.00 0.00 0.00 0.01 0.02 0.02 0.03 0.04 0.03 0.04
2.00 1.16 1.52 1.63 0.94 1.57 2.07 1.41 1.09 0.84 0.49 0.13 0.00 0.03 0.07 0.13 0.09 0.12 0.11 0.07 0.06 0.06 0.03 0.09 0.02 0.00 0.00 0.00 0.00 0.00 0.00 0.00 0.00 0.00 0.00 0.00 0.00 0.00 0.01 0.01 0.01 0.01 0.00 0.01
0.60 0.73 1.54 1.29 1.27 1.24 0.99 0.54 0.43 0.16 0.17 0.03 0.01 0.06 0.08 0.10 0.09 0.07 0.03 0.04 0.05 0.03 0.04 0.03 0.01 0.00 0.01 0.00 0.00 0.00 0.00 0.00 0.00 0.00 0.00 0.00 0.00 0.00 0.00 0.00 0.00 0.00 0.00 0.00
1.21 1.19 1.05 0.64 0.31 0.21 0.05 0.01 0.00 0.01 0.00 0.00 0.01 0.01 0.03 0.04 0.05 0.02 0.01 0.02 0.03 0.06 0.02 0.00 0.01 0.01 0.01 0.00 0.00 0.00 0.00 0.00 0.00 0.00 0.00 0.00 0.00 0.00 0.00 0.00 0.00 0.00 0.00 0.00
0.70 0.34 0.22 0.13 0.04 0.01 0.00 0.01 0.00 0.00 0.00 0.00 0.02 0.04 0.05 0.04 0.05 0.01 0.03 0.06 0.03 0.00 0.00 0.01 0.01 0.01 0.00 0.00 0.00 0.00 0.00 0.00 0.00 0.00 0.00 0.00 0.00 0.00 0.00 0.00 0.00 0.00 0.00 0.00
0.26 0.10 0.06 0.03 0.03 0.04 0.03 0.03 0.01 0.00 0.00 0.04 0.07 0.14 0.14 0.09 0.05 0.03 0.02 0.01 0.00 0.00 0.00 0.00 0.00 0.00 0.00 0.00 0.00 0.00 0.00 0.00 0.00 0.00 0.00 0.00 0.00 0.00 0.00 0.00 0.00 0.00 0.00 0.00
0.19 0.09 0.02 0.02 0.02 0.01 0.01 0.01 0.00 0.00 0.02 0.04 0.10 0.10 0.06 0.02 0.02 0.00 0.00 0.00 0.00 0.00 0.00 0.00 0.00 0.00 0.00 0.00 0.00 0.00 0.00 0.00 0.00 0.00 0.00 0.00 0.00 0.00 0.00 0.00 0.00 0.00 0.00 0.00

GFSNW_prec_precacc24_252.txt.gz
Total_Precipitation_Accumulation
0.00 0.00 0.00 0.01 0.00 0.00 0.02 0.15 0.16 0.11 0.21 0.43 0.33 0.15 0.01 0.00 0.00 0.00 0.00 0.00 0.00 0.00 0.00 0.00 0.05 0.02 0.09 0.04 0.04 0.06 0.08 0.06 0.04 0.06 0.04 0.03 0.03 0.08 0.09 0.22 0.16 0.10 0.11 0.04
0.01 0.01 0.02 0.03 0.04 0.00 0.02 0.09 0.16 0.31 0.23 0.19 0.11 0.03 0.02 0.01 0.00 0.00 0.00 0.00 0.00 0.00 0.01 0.03 0.02 0.06 0.08 0.06 0.04 0.07 0.09 0.14 0.16 0.15 0.11 0.06 0.06 0.03 0.02 0.04 0.11 0.12 0.11 0.03
0.02 0.01 0.02 0.04 0.05 0.00 0.01 0.03 0.14 0.57 0.70 0.10 0.05 0.04 0.03 0.04 0.00 0.00 0.00 0.00 0.01 0.02 0.04 0.02 0.04 0.06 0.08 0.05 0.07 0.06 0.07 0.09 0.12 0.12 0.09 0.09 0.10 0.08 0.07 0.13 0.21 0.07 0.02 0.00
0.03 0.03 0.04 0.06 0.07 0.03 0.04 0.04 0.02 0.12 0.37 0.18 0.04 0.05 0.03 0.03 0.02 0.00 0.00 0.00 0.02 0.04 0.04 0.02 0.04 0.06 0.05 0.04 0.04 0.06 0.10 0.12 0.10 0.09 0.09 0.11 0.09 0.03 0.01 0.03 0.02 0.04 0.01 0.00
0.06 0.07 0.07 0.12 0.11 0.12 0.10 0.04 0.02 0.01 0.02 0.03 0.04 0.05 0.04 0.02 0.02 0.00 0.00 0.00 0.01 0.02 0.04 0.06 0.06 0.06 0.07 0.09 0.08 0.09 0.12 0.11 0.04 0.01 0.00 0.01 0.02 0.00 0.00 0.00 0.00 0.00 0.00 0.00
0.03 0.06 0.07 0.12 0.13 0.18 0.11 0.04 0.04 0.04 0.03 0.04 0.08 0.03 0.01 0.01 0.02 0.01 0.00 0.00 0.02 0.03 0.02 0.04 0.08 0.08 0.05 0.05 0.03 0.03 0.03 0.02 0.02 0.02 0.00 0.01 0.01 0.00 0.00 0.00 0.00 0.00 0.00 0.00
0.06 0.07 0.09 0.09 0.06 0.08 0.04 0.02 0.09 0.07 0.04 0.04 0.04 0.02 0.01 0.01 0.02 0.02 0.01 0.02 0.02 0.01 0.02 0.03 0.03 0.03 0.02 0.01 0.02 0.03 0.04 0.03 0.08 0.08 0.05 0.11 0.01 0.00 0.00 0.00 0.00 0.00 0.00 0.00
0.05 0.08 0.11 0.09 0.04 0.14 0.11 0.06 0.07 0.12 0.05 0.05 0.03 0.02 0.02 0.02 0.04 0.06 0.06 0.04 0.03 0.03 0.05 0.08 0.08 0.05 0.03 0.01 0.01 0.01 0.01 0.04 0.14 0.23 0.18 0.05 0.00 0.00 0.00 0.00 0.00 0.00 0.00 0.00
0.06 0.07 0.10 0.10 0.07 0.20 0.20 0.07 0.08 0.16 0.13 0.07 0.09 0.09 0.05 0.03 0.04 0.06 0.09 0.07 0.02 0.03 0.09 0.15 0.13 0.06 0.02 0.01 0.01 0.00 0.01 0.03 0.15 0.26 0.31 0.08 0.00 0.00 0.00 0.00 0.01 0.00 0.00 0.00
0.05 0.07 0.08 0.09 0.08 0.18 0.27 0.16 0.06 0.17 0.21 0.07 0.04 0.14 0.14 0.06 0.08 0.08 0.08 0.08 0.07 0.14 0.22 0.24 0.13 0.04 0.01 0.02 0.01 0.01 0.02 0.04 0.10 0.16 0.45 0.16 0.00 0.00 0.00 0.06 0.05 0.00 0.00 0.00
0.05 0.07 0.08 0.09 0.09 0.18 0.29 0.27 0.09 0.12 0.19 0.10 0.09 0.06 0.10 0.11 0.17 0.26 0.16 0.15 0.15 0.19 0.27 0.27 0.18 0.07 0.02 0.01 0.00 0.02 0.09 0.12 0.14 0.17 0.43 0.17 0.00 0.00 0.00 0.02 0.00 0.00 0.00 0.00
0.08 0.09 0.09 0.10 0.11 0.18 0.32 0.35 0.17 0.10 0.26 0.20 0.09 0.10 0.07 0.07 0.10 0.20 0.26 0.19 0.12 0.07 0.12 0.14 0.10 0.11 0.10 0.04 0.04 0.01 0.15 0.11 0.07 0.17 0.12 0.01 0.02 0.02 0.02 0.00 0.00 0.00 0.00 0.01
0.11 0.11 0.13 0.11 0.11 0.16 0.31 0.30 0.24 0.21 0.46 0.33 0.13 0.14 0.08 0.04 0.04 0.11 0.23 0.18 0.16 0.18 0.17 0.27 0.40 0.37 0.19 0.12 0.10 0.04 0.09 0.09 0.21 0.19 0.16 0.07 0.08 0.05 0.01 0.01 0.01 0.02 0.02 0.01
0.16 0.16 0.18 0.15 0.13 0.17 0.38 0.44 0.32 0.31 0.50 0.39 0.17 0.09 0.14 0.09 0.06 0.06 0.07 0.12 0.17 0.27 0.37 0.60 0.68 0.46 0.25 0.22 0.16 0.15 0.15 0.21 0.30 0.32 0.15 0.15 0.08 0.01 0.01 0.01 0.01 0.00 0.01 0.00
0.18 0.18 0.21 0.21 0.20 0.30 0.58 0.55 0.33 0.25 0.29 0.34 0.14 0.07 0.08 0.12 0.12 0.15 0.17 0.18 0.29 0.44 0.60 0.76 0.59 0.37 0.30 0.30 0.23 0.16 0.05 0.07 0.19 0.16 0.03 0.06 0.05 0.01 0.00 0.00 0.00 0.00 0.00 0.00
0.19 0.21 0.25 0.26 0.32 0.66 0.96 1.32 0.73 0.30 0.27 0.34 0.33 0.19 0.17 0.18 0.17 0.22 0.29 0.33 0.37 0.46 0.54 0.48 0.31 0.16 0.16 0.32 0.20 0.03 0.00 0.00 0.00 0.01 0.01 0.03 0.04 0.01 0.00 0.00 0.00 0.00 0.00 0.00
0.23 0.24 0.29 0.31 0.45 0.78 0.94 0.86 0.45 0.24 0.33 0.67 0.66 0.31 0.14 0.16 0.23 0.28 0.29 0.28 0.32 0.38 0.41 0.33 0.22 0.14 0.21 0.29 0.10 0.00 0.00 0.00 0.00 0.00 0.01 0.05 0.04 0.02 0.00 0.00 0.00 0.00 0.00 0.00
0.30 0.29 0.38 0.55 0.97 1.22 0.95 0.31 0.08 0.08 0.40 0.94 0.70 0.34 0.12 0.13 0.19 0.23 0.24 0.23 0.22 0.24 0.24 0.20 0.13 0.16 0.19 0.14 0.01 0.00 0.00 0.01 0.01 0.00 0.00 0.00 0.02 0.01 0.00 0.00 0.00 0.00 0.00 0.00
0.46 0.54 0.89 1.70 2.02 1.78 0.91 0.41 0.42 0.26 0.49 0.90 0.51 0.10 0.06 0.04 0.10 0.16 0.18 0.18 0.19 0.18 0.16 0.08 0.06 0.12 0.08 0.01 0.00 0.01 0.01 0.01 0.00 0.00 0.00 0.00 0.00 0.00 0.00 0.00 0.00 0.00 0.00 0.01
0.93 1.65 2.95 3.90 2.47 0.80 0.60 1.05 1.90 1.92 1.23 0.40 0.16 0.01 0.04 0.03 0.07 0.15 0.13 0.14 0.13 0.14 0.05 0.02 0.05 0.03 0.00 0.00 0.00 0.01 0.00 0.00 0.00 0.00 0.00 0.00 0.00 0.00 0.00 0.00 0.00 0.00 0.00 0.01
2.52 3.41 2.81 1.89 0.93 0.74 1.19 2.32 2.54 2.73 1.76 0.54 0.06 0.02 0.06 0.08 0.09 0.12 0.12 0.12 0.11 0.11 0.03 0.02 0.03 0.00 0.00 0.00 0.01 0.00 0.00 0.00 0.00 0.00 0.00 0.00 0.00 0.00 0.00 0.00 0.00 0.00 0.00 0.00
1.98 1.18 1.48 1.62 0.92 1.59 2.27 1.56 1.22 0.95 0.62 0.13 0.00 0.03 0.08 0.14 0.11 0.13 0.11 0.08 0.07 0.06 0.05 0.11 0.02 0.00 0.00 0.00 0.00 0.00 0.00 0.00 0.00 0.00 0.00 0.00 0.00 0.00 0.00 0.00 0.00 0.00 0.00 0.00
0.62 0.78 1.62 1.57 1.38 1.32 1.19 0.60 0.54 0.16 0.18 0.03 0.01 0.09 0.11 0.14 0.13 0.12 0.05 0.06 0.07 0.04 0.06 0.03 0.00 0.00 0.01 0.00 0.00 0.00 0.00 0.00 0.00 0.00 0.00 0.00 0.00 0.00 0.00 0.00 0.00 0.00 0.00 0.00
1.25 1.24 1.25 0.70 0.55 0.25 0.06 0.02 0.00 0.01 0.00 0.00 0.01 0.02 0.04 0.05 0.08 0.06 0.04 0.03 0.05 0.07 0.02 0.00 0.00 0.01 0.00 0.00 0.00 0.00 0.00 0.00 0.00 0.00 0.00 0.00 0.00 0.00 0.00 0.00 0.00 0.00 0.00 0.00
0.80 0.39 0.34 0.19 0.08 0.01 0.00 0.01 0.00 0.00 0.00 0.00 0.04 0.06 0.07 0.08 0.07 0.04 0.06 0.10 0.06 0.01 0.00 0.01 0.01 0.01 0.00 0.00 0.00 0.00 0.00 0.00 0.00 0.00 0.00 0.00 0.00 0.00 0.00 0.00 0.00 0.00 0.00 0.00
0.41 0.24 0.07 0.05 0.07 0.05 0.04 0.04 0.01 0.00 0.01 0.06 0.11 0.19 0.23 0.15 0.08 0.06 0.04 0.05 0.01 0.00 0.00 0.00 0.00 0.00 0.00 0.00 0.00 0.00 0.00 0.00 0.00 0.00 0.00 0.00 0.00 0.00 0.00 0.00 0.00 0.00 0.00 0.00
0.29 0.17 0.03 0.03 0.05 0.04 0.02 0.02 0.01 0.01 0.05 0.07 0.14 0.16 0.13 0.05 0.06 0.02 0.00 0.00 0.00 0.00 0.00 0.00 0.00 0.00 0.00 0.00 0.00 0.00 0.00 0.00 0.00 0.00 0.00 0.00 0.00 0.00 0.00 0.00 0.00 0.00 0.00 0.00

GFSNW_prec_precacc24_255.txt.gz
Total_Precipitation_Accumulation
0.00 0.00 0.00 0.01 0.00 0.00 0.01 0.01 0.07 0.11 0.16 0.38 0.20 0.07 0.01 0.00 0.00 0.00 0.00 0.00 0.00 0.00 0.00 0.00 0.01 0.02 0.07 0.04 0.04 0.06 0.08 0.06 0.04 0.06 0.04 0.03 0.03 0.08 0.09 0.16 0.10 0.08 0.11 0.04
0.01 0.01 0.02 0.03 0.04 0.00 0.00 0.00 0.02 0.22 0.21 0.16 0.10 0.03 0.02 0.01 0.00 0.00 0.00 0.00 0.00 0.00 0.00 0.02 0.01 0.04 0.05 0.04 0.03 0.07 0.09 0.14 0.16 0.15 0.11 0.06 0.06 0.03 0.02 0.03 0.04 0.04 0.10 0.03
0.02 0.01 0.02 0.04 0.05 0.00 0.00 0.00 0.02 0.26 0.42 0.05 0.04 0.04 0.03 0.04 0.00 0.00 0.00 0.00 0.00 0.01 0.00 0.01 0.02 0.03 0.06 0.03 0.06 0.05 0.07 0.09 0.12 0.12 0.09 0.09 0.10 0.08 0.06 0.10 0.13 0.05 0.02 0.00
0.03 0.03 0.04 0.06 0.07 0.03 0.02 0.01 0.00 0.03 0.16 0.08 0.03 0.04 0.03 0.02 0.02 0.00 0.00 0.00 0.00 0.00 0.01 0.02 0.02 0.04 0.04 0.04 0.03 0.06 0.09 0.12 0.10 0.09 0.09 0.11 0.09 0.03 0.01 0.01 0.00 0.02 0.01 0.00
0.05 0.07 0.07 0.12 0.11 0.12 0.08 0.02 0.01 0.00 0.01 0.02 0.03 0.04 0.04 0.02 0.02 0.00 0.00 0.00 0.00 0.00 0.00 0.01 0.03 0.03 0.05 0.07 0.08 0.09 0.12 0.11 0.04 0.01 0.00 0.01 0.02 0.00 0.00 0.00 0.00 0.00 0.00 0.00
0.02 0.05 0.07 0.11 0.13 0.18 0.10 0.01 0.00 0.00 0.01 0.03 0.04 0.02 0.01 0.01 0.01 0.01 0.00 0.00 0.00 0.01 0.01 0.02 0.06 0.06 0.04 0.04 0.02 0.02 0.03 0.02 0.02 0.01 0.00 0.00 0.00 0.00 0.00 0.00 0.00 0.00 0.00 0.00
0.04 0.05 0.07 0.07 0.06 0.08 0.04 0.01 0.00 0.01 0.01 0.01 0.01 0.01 0.01 0.00 0.01 0.01 0.00 0.00 0.01 0.00 0.01 0.02 0.03 0.02 0.01 0.01 0.01 0.01 0.02 0.02 0.05 0.05 0.03 0.07 0.01 0.00 0.00 0.00 0.00 0.00 0.00 0.00
0.04 0.05 0.07 0.06 0.04 0.14 0.11 0.07 0.01 0.02 0.01 0.00 0.01 0.02 0.02 0.01 0.02 0.02 0.01 0.00 0.01 0.01 0.04 0.07 0.07 0.04 0.03 0.01 0.01 0.01 0.01 0.04 0.08 0.13 0.10 0.03 0.00 0.00 0.00 0.00 0.00 0.00 0.00 0.00
0.05 0.05 0.06 0.07 0.06 0.20 0.20 0.10 0.07 0.05 0.04 0.00 0.00 0.02 0.02 0.02 0.02 0.03 0.04 0.02 0.01 0.04 0.10 0.12 0.11 0.05 0.02 0.01 0.00 0.00 0.01 0.02 0.08 0.12 0.18 0.05 0.00 0.00 0.00 0.00 0.01 0.00 0.00 0.00
0.04 0.05 0.05 0.06 0.06 0.17 0.26 0.16 0.08 0.11 0.06 0.01 0.00 0.02 0.03 0.02 0.06 0.06 0.04 0.06 0.06 0.13 0.19 0.21 0.11 0.04 0.01 0.02 0.01 0.00 0.01 0.03 0.07 0.10 0.27 0.11 0.00 0.00 0.00 0.06 0.05 0.00 0.00 0.00
0.04 0.05 0.05 0.07 0.08 0.17 0.28 0.26 0.09 0.05 0.07 0.03 0.00 0.01 0.02 0.06 0.10 0.21 0.14 0.15 0.12 0.15 0.22 0.24 0.16 0.07 0.01 0.00 0.00 0.00 0.03 0.09 0.10 0.12 0.31 0.13 0.00 0.00 0.00 0.02 0.00 0.00 0.00 0.00
0.07 0.07 0.06 0.07 0.09 0.17 0.30 0.34 0.17 0.06 0.09 0.03 0.01 0.01 0.02 0.02 0.05 0.16 0.26 0.20 0.11 0.06 0.09 0.10 0.07 0.06 0.05 0.02 0.02 0.01 0.09 0.08 0.05 0.16 0.10 0.01 0.02 0.02 0.02 0.00 0.00 0.00 0.00 0.01
0.09 0.08 0.08 0.07 0.09 0.15 0.31 0.30 0.25 0.18 0.29 0.14 0.01 0.00 0.00 0.01 0.01 0.06 0.20 0.19 0.17 0.18 0.18 0.24 0.31 0.27 0.13 0.08 0.07 0.03 0.07 0.08 0.20 0.19 0.16 0.07 0.08 0.05 0.01 0.01 0.01 0.02 0.02 0.01
0.12 0.10 0.12 0.11 0.11 0.18 0.36 0.44 0.33 0.28 0.34 0.24 0.08 0.00 0.00 0.01 0.01 0.02 0.05 0.11 0.11 0.17 0.26 0.46 0.49 0.34 0.20 0.17 0.13 0.13 0.12 0.20 0.29 0.32 0.15 0.15 0.08 0.01 0.01 0.01 0.01 0.00 0.01 0.00
0.12 0.12 0.14 0.17 0.18 0.30 0.57 0.55 0.34 0.23 0.18 0.22 0.07 0.00 0.00 0.00 0.00 0.03 0.07 0.10 0.19 0.28 0.39 0.51 0.42 0.30 0.25 0.26 0.20 0.15 0.05 0.07 0.19 0.16 0.03 0.06 0.05 0.01 0.00 0.00 0.00 0.00 0.00 0.00
0.13 0.14 0.17 0.20 0.28 0.65 0.95 1.29 0.68 0.27 0.20 0.23 0.24 0.09 0.00 0.00 0.00 0.03 0.09 0.14 0.19 0.27 0.35 0.32 0.25 0.15 0.14 0.29 0.19 0.03 0.00 0.00 0.00 0.01 0.01 0.03 0.04 0.01 0.00 0.00 0.00 0.00 0.00 0.00
0.18 0.18 0.24 0.29 0.43 0.78 0.92 0.81 0.39 0.16 0.22 0.60 0.63 0.23 0.04 0.01 0.03 0.06 0.06 0.09 0.16 0.24 0.30 0.27 0.20 0.13 0.20 0.29 0.10 0.00 0.00 0.00 0.00 0.00 0.01 0.05 0.04 0.02 0.00 0.00 0.00 0.00 0.00 0.00
0.28 0.28 0.36 0.50 0.90 1.09 0.89 0.27 0.08 0.05 0.26 0.79 0.70 0.29 0.06 0.02 0.04 0.07 0.10 0.13 0.16 0.20 0.21 0.19 0.12 0.16 0.18 0.14 0.01 0.00 0.00 0.01 0.01 0.00 0.00 0.00 0.02 0.01 0.00 0.00 0.00 0.00 0.00 0.00
0.45 0.50 0.83 1.53 1.82 1.59 0.79 0.32 0.39 0.24 0.32 0.73 0.49 0.11 0.05 0.01 0.04 0.09 0.12 0.15 0.16 0.17 0.15 0.07 0.06 0.12 0.08 0.01 0.00 0.01 0.01 0.01 0.00 0.00 0.00 0.00 0.00 0.00 0.00 0.00 0.00 0.00 0.00 0.00
0.90 1.62 2.92 3.76 2.25 0.66 0.48 0.99 1.69 1.81 1.17 0.33 0.12 0.02 0.04 0.01 0.02 0.09 0.13 0.16 0.15 0.16 0.05 0.02 0.05 0.03 0.00 0.00 0.00 0.01 0.00 0.00 0.00 0.00 0.00 0.00 0.00 0.00 0.00 0.00 0.00 0.00 0.00 0.00
2.57 3.49 2.64 1.62 0.70 0.58 0.95 2.00 2.19 2.48 1.70 0.50 0.02 0.02 0.03 0.02 0.03 0.07 0.11 0.14 0.14 0.13 0.03 0.02 0.03 0.00 0.00 0.00 0.01 0.00 0.00 0.00 0.00 0.00 0.00 0.00 0.00 0.00 0.00 0.00 0.00 0.00 0.00 0.00
2.10 1.19 1.39 1.51 0.75 1.36 2.15 1.46 1.19 0.90 0.59 0.12 0.00 0.01 0.03 0.07 0.08 0.11 0.11 0.09 0.09 0.07 0.05 0.12 0.02 0.00 0.00 0.00 0.00 0.00 0.00 0.00 0.00 0.00 0.00 0.00 0.00 0.00 0.00 0.00 0.00 0.00 0.00 0.00
0.56 0.73 1.56 1.47 1.30 1.27 1.24 0.64 0.64 0.17 0.18 0.03 0.01 0.06 0.09 0.14 0.14 0.13 0.06 0.08 0.08 0.04 0.06 0.04 0.00 0.00 0.01 0.00 0.00 0.00 0.00 0.00 0.00 0.00 0.00 0.00 0.00 0.00 0.00 0.00 0.00 0.00 0.00 0.00
1.15 1.30 1.29 0.78 0.69 0.27 0.07 0.02 0.01 0.01 0.00 0.00 0.01 0.02 0.04 0.06 0.10 0.08 0.05 0.04 0.05 0.07 0.02 0.00 0.00 0.01 0.00 0.00 0.00 0.00 0.00 0.00 0.00 0.00 0.00 0.00 0.00 0.00 0.00 0.00 0.00 0.00 0.00 0.00
0.85 0.43 0.42 0.20 0.12 0.02 0.00 0.01 0.00 0.00 0.00 0.00 0.04 0.07 0.08 0.09 0.08 0.06 0.07 0.11 0.07 0.01 0.00 0.01 0.01 0.01 0.00 0.00 0.00 0.00 0.00 0.00 0.00 0.00 0.00 0.00 0.00 0.00 0.00 0.00 0.00 0.00 0.00 0.00
0.49 0.24 0.06 0.05 0.07 0.05 0.05 0.04 0.01 0.00 0.01 0.08 0.15 0.21 0.25 0.17 0.10 0.07 0.05 0.05 0.01 0.00 0.00 0.00 0.00 0.00 0.00 0.00 0.00 0.00 0.00 0.00 0.00 0.00 0.00 0.00 0.00 0.00 0.00 0.00 0.00 0.00 0.00 0.00
0.46 0.20 0.03 0.03 0.05 0.04 0.02 0.02 0.01 0.01 0.07 0.10 0.16 0.18 0.15 0.07 0.08 0.03 0.00 0.00 0.00 0.00 0.00 0.00 0.00 0.00 0.00 0.00 0.00 0.00 0.00 0.00 0.00 0.00 0.00 0.00 0.00 0.00 0.00 0.00 0.00 0.00 0.00 0.00

GFSNW_prec_precacc24_258.txt.gz
Total_Precipitation_Accumulation
0.00 0.00 0.00 0.01 0.00 0.00 0.00 0.00 0.03 0.06 0.10 0.30 0.15 0.06 0.01 0.00 0.00 0.00 0.00 0.00 0.00 0.00 0.00 0.00 0.00 0.01 0.05 0.01 0.01 0.04 0.05 0.04 0.03 0.04 0.03 0.03 0.03 0.08 0.09 0.16 0.09 0.05 0.06 0.01
0.01 0.00 0.02 0.03 0.04 0.00 0.00 0.00 0.01 0.18 0.15 0.11 0.09 0.03 0.02 0.01 0.00 0.00 0.00 0.00 0.00 0.00 0.00 0.00 0.00 0.01 0.02 0.00 0.01 0.06 0.07 0.13 0.16 0.15 0.12 0.07 0.06 0.03 0.02 0.02 0.04 0.02 0.05 0.01
0.01 0.01 0.02 0.04 0.05 0.00 0.00 0.00 0.02 0.18 0.39 0.04 0.05 0.04 0.03 0.04 0.00 0.00 0.00 0.00 0.00 0.00 0.00 0.00 0.00 0.02 0.03 0.00 0.02 0.02 0.04 0.08 0.12 0.12 0.09 0.09 0.10 0.08 0.06 0.10 0.13 0.05 0.02 0.00
0.02 0.02 0.03 0.05 0.07 0.03 0.01 0.01 0.00 0.01 0.12 0.10 0.03 0.05 0.03 0.02 0.02 0.00 0.00 0.00 0.00 0.00 0.01 0.02 0.01 0.01 0.02 0.01 0.02 0.04 0.07 0.11 0.10 0.09 0.09 0.11 0.09 0.03 0.01 0.01 0.00 0.02 0.01 0.00
0.03 0.04 0.06 0.09 0.10 0.12 0.07 0.02 0.01 0.00 0.00 0.02 0.03 0.03 0.04 0.02 0.02 0.00 0.00 0.00 0.00 0.00 0.00 0.00 0.01 0.01 0.02 0.02 0.05 0.08 0.11 0.10 0.04 0.01 0.00 0.01 0.02 0.00 0.00 0.00 0.00 0.00 0.00 0.00
0.00 0.02 0.04 0.08 0.11 0.17 0.09 0.01 0.00 0.00 0.00 0.02 0.03 0.02 0.01 0.01 0.01 0.01 0.00 0.00 0.00 0.01 0.00 0.00 0.00 0.01 0.00 0.00 0.00 0.01 0.02 0.02 0.02 0.01 0.00 0.00 0.00 0.00 0.00 0.00 0.00 0.00 0.00 0.00
0.02 0.02 0.02 0.05 0.05 0.08 0.04 0.01 0.00 0.01 0.01 0.00 0.01 0.01 0.01 0.00 0.00 0.01 0.00 0.00 0.01 0.00 0.00 0.00 0.00 0.00 0.00 0.00 0.00 0.01 0.02 0.02 0.04 0.04 0.03 0.06 0.00 0.00 0.00 0.00 0.00 0.00 0.00 0.00
0.04 0.02 0.02 0.02 0.03 0.12 0.11 0.06 0.01 0.00 0.01 0.00 0.01 0.02 0.02 0.01 0.01 0.02 0.01 0.00 0.01 0.00 0.01 0.04 0.03 0.01 0.02 0.00 0.00 0.01 0.01 0.03 0.06 0.10 0.08 0.02 0.00 0.00 0.00 0.00 0.00 0.00 0.00 0.00
0.05 0.04 0.03 0.02 0.03 0.14 0.19 0.09 0.06 0.04 0.02 0.00 0.00 0.02 0.02 0.02 0.02 0.03 0.04 0.02 0.00 0.04 0.08 0.08 0.06 0.03 0.01 0.01 0.00 0.00 0.01 0.02 0.06 0.08 0.14 0.04 0.00 0.00 0.00 0.00 0.01 0.00 0.00 0.00
0.04 0.05 0.03 0.02 0.03 0.10 0.23 0.16 0.07 0.10 0.05 0.00 0.00 0.02 0.03 0.02 0.05 0.04 0.04 0.07 0.05 0.11 0.16 0.18 0.08 0.02 0.01 0.01 0.01 0.00 0.01 0.01 0.06 0.09 0.21 0.07 0.00 0.00 0.00 0.04 0.04 0.00 0.00 0.00
0.06 0.05 0.04 0.03 0.05 0.11 0.23 0.26 0.09 0.04 0.07 0.02 0.00 0.00 0.02 0.05 0.08 0.10 0.06 0.14 0.10 0.15 0.18 0.19 0.12 0.04 0.01 0.00 0.00 0.00 0.01 0.05 0.07 0.10 0.23 0.10 0.00 0.00 0.00 0.01 0.00 0.00 0.00 0.00
0.09 0.05 0.04 0.04 0.06 0.11 0.24 0.33 0.17 0.06 0.09 0.03 0.00 0.00 0.00 0.01 0.04 0.12 0.16 0.10 0.05 0.05 0.07 0.05 0.05 0.03 0.02 0.01 0.01 0.00 0.04 0.04 0.03 0.12 0.08 0.01 0.02 0.02 0.02 0.00 0.00 0.00 0.00 0.01
0.14 0.06 0.05 0.04 0.06 0.09 0.25 0.29 0.25 0.18 0.29 0.14 0.01 0.00 0.00 0.01 0.01 0.02 0.15 0.16 0.16 0.17 0.16 0.19 0.19 0.15 0.06 0.04 0.04 0.02 0.05 0.07 0.17 0.17 0.14 0.06 0.08 0.05 0.01 0.01 0.01 0.02 0.02 0.01
0.21 0.10 0.08 0.07 0.07 0.13 0.31 0.43 0.33 0.28 0.34 0.25 0.08 0.00 0.00 0.01 0.01 0.01 0.02 0.10 0.10 0.12 0.14 0.23 0.22 0.22 0.15 0.12 0.09 0.11 0.12 0.17 0.22 0.28 0.13 0.14 0.08 0.01 0.01 0.01 0.01 0.00 0.01 0.00
0.17 0.14 0.11 0.13 0.14 0.24 0.49 0.54 0.33 0.23 0.18 0.23 0.07 0.00 0.00 0.00 0.00 0.01 0.02 0.05 0.12 0.16 0.16 0.20 0.21 0.18 0.18 0.18 0.16 0.13 0.05 0.06 0.17 0.15 0.03 0.05 0.05 0.01 0.00 0.00 0.00 0.00 0.00 0.00
0.13 0.15 0.16 0.18 0.25 0.55 0.84 1.22 0.64 0.27 0.20 0.23 0.22 0.08 0.00 0.00 0.00 0.00 0.00 0.02 0.05 0.15 0.23 0.20 0.14 0.08 0.09 0.18 0.13 0.02 0.00 0.00 0.00 0.00 0.01 0.03 0.04 0.01 0.00 0.00 0.00 0.00 0.00 0.00
0.14 0.16 0.20 0.24 0.37 0.66 0.83 0.76 0.37 0.16 0.22 0.59 0.61 0.19 0.02 0.00 0.01 0.02 0.01 0.01 0.01 0.04 0.12 0.14 0.12 0.09 0.12 0.18 0.07 0.00 0.00 0.00 0.00 0.00 0.01 0.05 0.04 0.02 0.00 0.00 0.00 0.00 0.00 0.00
0.18 0.21 0.29 0.41 0.80 0.99 0.88 0.26 0.08 0.05 0.26 0.79 0.70 0.28 0.05 0.01 0.02 0.02 0.01 0.01 0.02 0.03 0.04 0.06 0.04 0.07 0.13 0.11 0.01 0.00 0.00 0.01 0.01 0.00 0.00 0.00 0.02 0.01 0.00 0.00 0.00 0.00 0.00 0.00
0.31 0.39 0.70 1.31 1.61 1.46 0.78 0.31 0.36 0.24 0.32 0.72 0.49 0.11 0.05 0.01 0.02 0.05 0.04 0.04 0.04 0.05 0.05 0.02 0.03 0.06 0.05 0.01 0.00 0.00 0.01 0.01 0.00 0.00 0.00 0.00 0.00 0.00 0.00 0.00 0.00 0.00 0.00 0.00
0.74 1.46 2.63 3.50 2.07 0.62 0.47 1.00 1.54 1.67 1.16 0.31 0.11 0.02 0.03 0.01 0.02 0.07 0.10 0.14 0.08 0.08 0.01 0.01 0.04 0.02 0.00 0.00 0.00 0.01 0.00 0.00 0.00 0.00 0.00 0.00 0.00 0.00 0.00 0.00 0.00 0.00 0.00 0.00
2.49 3.57 2.63 1.53 0.58 0.54 0.88 1.95 1.96 2.17 1.62 0.48 0.02 0.02 0.02 0.00 0.01 0.03 0.04 0.13 0.13 0.08 0.01 0.01 0.02 0.00 0.00 0.00 0.01 0.00 0.00 0.00 0.00 0.00 0.00 0.00 0.00 0.00 0.00 0.00 0.00 0.00 0.00 0.00
2.14 1.25 1.37 1.46 0.68 1.29 2.02 1.35 1.10 0.77 0.52 0.10 0.00 0.01 0.02 0.01 0.02 0.02 0.03 0.04 0.06 0.04 0.05 0.11 0.02 0.00 0.00 0.00 0.00 0.00 0.00 0.00 0.00 0.00 0.00 0.00 0.00 0.00 0.00 0.00 0.00 0.00 0.00 0.00
0.57 0.77 1.69 1.52 1.28 1.23 1.23 0.63 0.62 0.16 0.15 0.03 0.01 0.05 0.05 0.08 0.09 0.08 0.03 0.05 0.06 0.04 0.06 0.04 0.00 0.00 0.01 0.00 0.00 0.00 0.00 0.00 0.00 0.00 0.00 0.00 0.00 0.00 0.00 0.00 0.00 0.00 0.00 0.00
1.17 1.31 1.36 0.77 0.77 0.28 0.07 0.02 0.01 0.01 0.00 0.00 0.01 0.02 0.02 0.04 0.09 0.07 0.06 0.04 0.05 0.07 0.02 0.00 0.00 0.01 0.00 0.00 0.00 0.00 0.00 0.00 0.00 0.00 0.00 0.00 0.00 0.00 0.00 0.00 0.00 0.00 0.00 0.00
0.92 0.49 0.49 0.20 0.12 0.01 0.00 0.01 0.00 0.00 0.00 0.00 0.03 0.05 0.06 0.06 0.06 0.06 0.08 0.12 0.07 0.01 0.00 0.00 0.01 0.01 0.00 0.00 0.00 0.00 0.00 0.00 0.00 0.00 0.00 0.00 0.00 0.00 0.00 0.00 0.00 0.00 0.00 0.00
0.49 0.27 0.09 0.05 0.07 0.05 0.04 0.04 0.01 0.00 0.01 0.10 0.18 0.20 0.23 0.14 0.08 0.07 0.05 0.05 0.01 0.00 0.00 0.00 0.00 0.00 0.00 0.00 0.00 0.00 0.00 0.00 0.00 0.00 0.00 0.00 0.00 0.00 0.00 0.00 0.00 0.00 0.00 0.00
0.47 0.20 0.03 0.03 0.05 0.04 0.02 0.02 0.01 0.01 0.11 0.12 0.16 0.18 0.16 0.07 0.08 0.03 0.00 0.00 0.00 0.00 0.00 0.00 0.00 0.00 0.00 0.00 0.00 0.00 0.00 0.00 0.00 0.00 0.00 0.00 0.00 0.00 0.00 0.00 0.00 0.00 0.00 0.00

GFSNW_prec_precacc24_261.txt.gz
Total_Precipitation_Accumulation
0.02 0.02 0.06 0.11 0.10 0.15 0.13 0.08 0.10 0.10 0.05 0.17 0.13 0.05 0.01 0.00 0.00 0.00 0.00 0.00 0.00 0.00 0.00 0.00 0.00 0.01 0.05 0.01 0.00 0.01 0.01 0.01 0.01 0.00 0.01 0.02 0.03 0.08 0.09 0.16 0.09 0.05 0.06 0.01
0.02 0.02 0.04 0.11 0.11 0.07 0.06 0.03 0.05 0.18 0.15 0.07 0.08 0.03 0.02 0.01 0.00 0.00 0.00 0.00 0.00 0.00 0.00 0.00 0.00 0.01 0.01 0.00 0.00 0.04 0.04 0.08 0.14 0.14 0.11 0.07 0.06 0.03 0.02 0.02 0.04 0.02 0.05 0.01
0.01 0.01 0.03 0.05 0.10 0.03 0.02 0.03 0.03 0.13 0.29 0.03 0.04 0.04 0.03 0.04 0.00 0.00 0.00 0.00 0.00 0.00 0.00 0.00 0.00 0.02 0.03 0.00 0.00 0.00 0.02 0.05 0.08 0.09 0.09 0.09 0.10 0.08 0.06 0.10 0.13 0.05 0.02 0.00
0.02 0.00 0.00 0.02 0.06 0.04 0.01 0.01 0.00 0.01 0.09 0.07 0.03 0.05 0.03 0.02 0.02 0.00 0.00 0.00 0.00 0.00 0.01 0.02 0.01 0.01 0.02 0.01 0.00 0.01 0.01 0.01 0.00 0.05 0.09 0.10 0.09 0.03 0.00 0.01 0.00 0.02 0.01 0.00
0.03 0.01 0.01 0.05 0.07 0.11 0.06 0.02 0.01 0.00 0.00 0.02 0.03 0.03 0.04 0.02 0.02 0.00 0.00 0.00 0.00 0.00 0.00 0.00 0.01 0.01 0.02 0.01 0.01 0.00 0.00 0.00 0.00 0.00 0.00 0.01 0.02 0.00 0.00 0.00 0.00 0.00 0.00 0.00
0.01 0.00 0.00 0.03 0.05 0.14 0.08 0.01 0.00 0.00 0.00 0.01 0.04 0.02 0.01 0.01 0.01 0.01 0.00 0.00 0.00 0.01 0.00 0.00 0.00 0.00 0.00 0.00 0.00 0.01 0.01 0.01 0.01 0.00 0.00 0.00 0.00 0.00 0.00 0.00 0.00 0.00 0.00 0.00
0.02 0.00 0.00 0.02 0.02 0.06 0.04 0.01 0.00 0.00 0.01 0.00 0.01 0.01 0.01 0.00 0.00 0.01 0.00 0.00 0.01 0.00 0.00 0.00 0.00 0.00 0.00 0.00 0.00 0.00 0.01 0.01 0.03 0.02 0.02 0.04 0.00 0.00 0.00 0.00 0.00 0.00 0.00 0.00
0.03 0.01 0.00 0.00 0.01 0.08 0.11 0.06 0.01 0.00 0.01 0.00 0.00 0.01 0.01 0.01 0.01 0.02 0.01 0.00 0.01 0.00 0.01 0.03 0.03 0.01 0.02 0.00 0.00 0.00 0.00 0.02 0.03 0.03 0.04 0.01 0.00 0.00 0.00 0.00 0.00 0.00 0.00 0.00
0.04 0.03 0.02 0.00 0.01 0.09 0.17 0.09 0.06 0.04 0.01 0.00 0.00 0.01 0.02 0.02 0.02 0.03 0.04 0.02 0.00 0.04 0.08 0.07 0.05 0.03 0.01 0.01 0.00 0.00 0.01 0.02 0.05 0.05 0.10 0.02 0.00 0.00 0.00 0.00 0.00 0.00 0.00 0.00
0.06 0.06 0.02 0.00 0.01 0.07 0.19 0.16 0.07 0.10 0.05 0.00 0.00 0.02 0.02 0.02 0.05 0.04 0.04 0.07 0.05 0.10 0.14 0.16 0.06 0.01 0.00 0.01 0.01 0.00 0.01 0.01 0.04 0.07 0.15 0.04 0.00 0.00 0.00 0.04 0.03 0.00 0.00 0.00
0.09 0.07 0.03 0.02 0.02 0.07 0.17 0.23 0.09 0.04 0.07 0.02 0.00 0.00 0.02 0.04 0.07 0.10 0.06 0.15 0.11 0.15 0.17 0.15 0.09 0.03 0.01 0.00 0.00 0.00 0.00 0.01 0.02 0.04 0.13 0.06 0.00 0.00 0.00 0.01 0.00 0.00 0.00 0.00
0.13 0.10 0.05 0.07 0.05 0.07 0.18 0.28 0.17 0.05 0.08 0.03 0.00 0.00 0.00 0.01 0.04 0.10 0.15 0.10 0.05 0.04 0.08 0.06 0.05 0.02 0.01 0.01 0.01 0.00 0.00 0.00 0.01 0.05 0.04 0.01 0.02 0.02 0.01 0.00 0.00 0.00 0.00 0.01
0.25 0.15 0.11 0.10 0.07 0.06 0.17 0.22 0.24 0.17 0.29 0.14 0.01 0.00 0.00 0.00 0.01 0.02 0.15 0.16 0.16 0.14 0.11 0.14 0.16 0.11 0.04 0.03 0.01 0.00 0.00 0.01 0.05 0.08 0.08 0.06 0.08 0.04 0.01 0.01 0.01 0.02 0.02 0.01
0.42 0.26 0.19 0.12 0.08 0.09 0.20 0.31 0.32 0.28 0.34 0.26 0.09 0.00 0.00 0.00 0.00 0.00 0.02 0.11 0.10 0.13 0.14 0.21 0.16 0.14 0.10 0.06 0.04 0.04 0.03 0.07 0.12 0.17 0.10 0.13 0.08 0.01 0.01 0.01 0.01 0.00 0.01 0.00
0.51 0.40 0.26 0.20 0.14 0.18 0.31 0.41 0.32 0.23 0.18 0.23 0.07 0.00 0.00 0.00 0.00 0.01 0.02 0.05 0.15 0.18 0.15 0.14 0.11 0.10 0.08 0.05 0.04 0.03 0.02 0.04 0.13 0.12 0.02 0.04 0.04 0.01 0.00 0.00 0.00 0.00 0.00 0.00
0.50 0.46 0.34 0.25 0.22 0.34 0.55 0.93 0.55 0.27 0.20 0.23 0.22 0.08 0.00 0.00 0.00 0.00 0.00 0.02 0.06 0.19 0.31 0.21 0.09 0.03 0.04 0.05 0.02 0.01 0.00 0.00 0.00 0.00 0.01 0.03 0.04 0.01 0.00 0.00 0.00 0.00 0.00 0.00
0.42 0.42 0.32 0.25 0.25 0.36 0.56 0.55 0.28 0.16 0.22 0.58 0.61 0.19 0.02 0.00 0.01 0.01 0.01 0.01 0.01 0.04 0.11 0.16 0.11 0.05 0.08 0.09 0.02 0.00 0.00 0.00 0.00 0.00 0.01 0.05 0.04 0.02 0.00 0.00 0.00 0.00 0.00 0.00
0.36 0.39 0.35 0.38 0.60 0.69 0.66 0.24 0.08 0.05 0.25 0.78 0.70 0.28 0.05 0.01 0.02 0.02 0.01 0.01 0.01 0.01 0.02 0.02 0.00 0.02 0.07 0.06 0.00 0.00 0.00 0.00 0.00 0.00 0.00 0.00 0.02 0.01 0.00 0.00 0.00 0.00 0.00 0.00
0.44 0.51 0.74 1.20 1.33 1.11 0.60 0.29 0.36 0.24 0.31 0.71 0.48 0.11 0.05 0.01 0.02 0.04 0.04 0.04 0.03 0.02 0.02 0.00 0.01 0.02 0.02 0.00 0.00 0.00 0.00 0.00 0.00 0.00 0.00 0.00 0.00 0.00 0.00 0.00 0.00 0.00 0.00 0.00
0.78 1.38 2.36 3.02 1.68 0.51 0.38 0.88 1.45 1.60 1.11 0.31 0.11 0.02 0.03 0.01 0.02 0.06 0.10 0.13 0.07 0.06 0.01 0.00 0.02 0.01 0.00 0.00 0.00 0.00 0.00 0.00 0.00 0.00 0.00 0.00 0.00 0.00 0.00 0.00 0.00 0.00 0.00 0.00
2.20 3.09 2.23 1.23 0.46 0.49 0.74 1.73 1.69 1.98 1.54 0.47 0.02 0.02 0.02 0.00 0.01 0.03 0.04 0.14 0.16 0.09 0.01 0.01 0.02 0.00 0.00 0.00 0.00 0.00 0.00 0.00 0.00 0.00 0.00 0.00 0.00 0.00 0.00 0.00 0.00 0.00 0.00 0.00
1.94 1.07 1.19 1.38 0.64 1.15 1.88 1.23 1.03 0.65 0.50 0.09 0.00 0.01 0.02 0.01 0.02 0.02 0.03 0.04 0.08 0.05 0.05 0.11 0.01 0.00 0.00 0.00 0.00 0.00 0.00 0.00 0.00 0.00 0.00 0.00 0.00 0.00 0.00 0.00 0.00 0.00 0.00 0.00
0.54 0.80 1.79 1.53 1.17 1.17 1.19 0.59 0.61 0.14 0.12 0.02 0.01 0.05 0.05 0.08 0.09 0.08 0.03 0.05 0.06 0.03 0.06 0.04 0.00 0.00 0.01 0.00 0.00 0.00 0.00 0.00 0.00 0.00 0.00 0.00 0.00 0.00 0.00 0.00 0.00 0.00 0.00 0.00
1.15 1.35 1.47 0.78 0.78 0.29 0.08 0.02 0.01 0.01 0.00 0.00 0.01 0.02 0.02 0.04 0.09 0.08 0.07 0.04 0.05 0.06 0.02 0.00 0.00 0.00 0.00 0.00 0.00 0.00 0.00 0.00 0.00 0.00 0.00 0.00 0.00 0.00 0.00 0.00 0.00 0.00 0.00 0.00
0.91 0.49 0.51 0.21 0.13 0.01 0.00 0.01 0.00 0.00 0.00 0.00 0.03 0.05 0.06 0.07 0.08 0.07 0.10 0.13 0.07 0.01 0.00 0.00 0.00 0.00 0.00 0.00 0.00 0.00 0.00 0.00 0.00 0.00 0.00 0.00 0.00 0.00 0.00 0.00 0.00 0.00 0.00 0.00
0.49 0.27 0.10 0.05 0.07 0.05 0.04 0.04 0.01 0.00 0.01 0.10 0.17 0.19 0.24 0.15 0.09 0.11 0.06 0.05 0.01 0.00 0.00 0.00 0.00 0.00 0.00 0.00 0.00 0.00 0.00 0.00 0.00 0.00 0.00 0.00 0.00 0.00 0.00 0.00 0.00 0.00 0.00 0.00
0.47 0.20 0.03 0.03 0.05 0.04 0.02 0.02 0.01 0.01 0.11 0.11 0.13 0.16 0.16 0.09 0.08 0.03 0.00 0.00 0.00 0.00 0.00 0.00 0.00 0.00 0.00 0.00 0.00 0.00 0.00 0.00 0.00 0.00 0.00 0.00 0.00 0.00 0.00 0.00 0.00 0.00 0.00 0.00

GFSNW_prec_precacc24_264.txt.gz
Total_Precipitation_Accumulation
0.02 0.03 0.07 0.14 0.19 0.42 0.49 0.31 0.30 0.15 0.17 0.22 0.13 0.05 0.01 0.00 0.00 0.00 0.00 0.00 0.00 0.00 0.00 0.00 0.00 0.01 0.05 0.01 0.00 0.00 0.00 0.00 0.00 0.00 0.00 0.01 0.02 0.07 0.09 0.14 0.08 0.05 0.06 0.01
0.03 0.03 0.04 0.15 0.21 0.16 0.30 0.22 0.19 0.30 0.23 0.13 0.09 0.03 0.02 0.01 0.00 0.00 0.00 0.00 0.00 0.00 0.00 0.00 0.00 0.01 0.01 0.00 0.00 0.03 0.03 0.06 0.08 0.07 0.09 0.05 0.04 0.03 0.02 0.02 0.04 0.02 0.05 0.01
0.02 0.04 0.06 0.11 0.20 0.16 0.06 0.29 0.31 0.36 0.35 0.05 0.03 0.04 0.03 0.03 0.00 0.00 0.00 0.00 0.00 0.00 0.00 0.00 0.00 0.01 0.03 0.00 0.00 0.00 0.01 0.03 0.05 0.05 0.05 0.04 0.01 0.01 0.03 0.10 0.13 0.05 0.02 0.00
0.02 0.05 0.06 0.09 0.14 0.21 0.14 0.10 0.27 0.10 0.15 0.08 0.03 0.03 0.02 0.02 0.01 0.00 0.00 0.00 0.00 0.00 0.01 0.02 0.01 0.01 0.01 0.01 0.00 0.00 0.00 0.00 0.00 0.00 0.00 0.00 0.00 0.00 0.00 0.00 0.00 0.02 0.01 0.00
0.04 0.05 0.05 0.09 0.15 0.22 0.27 0.11 0.03 0.03 0.01 0.02 0.02 0.03 0.03 0.01 0.02 0.00 0.00 0.00 0.00 0.00 0.00 0.00 0.01 0.01 0.02 0.01 0.01 0.00 0.00 0.00 0.00 0.00 0.00 0.00 0.00 0.00 0.00 0.00 0.00 0.00 0.00 0.00
0.02 0.03 0.04 0.06 0.10 0.16 0.18 0.10 0.01 0.00 0.01 0.01 0.03 0.01 0.01 0.01 0.01 0.01 0.00 0.00 0.00 0.01 0.00 0.00 0.00 0.00 0.00 0.00 0.00 0.00 0.01 0.01 0.01 0.00 0.00 0.00 0.00 0.00 0.00 0.00 0.00 0.00 0.00 0.00
0.03 0.03 0.02 0.03 0.04 0.07 0.05 0.01 0.00 0.01 0.02 0.00 0.01 0.01 0.00 0.00 0.00 0.01 0.00 0.00 0.01 0.00 0.00 0.00 0.00 0.00 0.00 0.00 0.00 0.00 0.01 0.01 0.03 0.01 0.01 0.01 0.00 0.00 0.00 0.00 0.00 0.00 0.00 0.00
0.05 0.04 0.03 0.00 0.01 0.06 0.11 0.06 0.01 0.00 0.00 0.00 0.00 0.01 0.01 0.00 0.01 0.02 0.01 0.00 0.01 0.00 0.01 0.03 0.03 0.01 0.02 0.00 0.00 0.00 0.00 0.02 0.02 0.02 0.02 0.00 0.00 0.00 0.00 0.00 0.00 0.00 0.00 0.00
0.06 0.06 0.05 0.00 0.00 0.05 0.15 0.09 0.06 0.04 0.01 0.00 0.00 0.00 0.01 0.02 0.01 0.02 0.04 0.02 0.00 0.04 0.08 0.07 0.05 0.03 0.01 0.01 0.00 0.00 0.01 0.02 0.04 0.04 0.06 0.01 0.00 0.00 0.00 0.00 0.00 0.00 0.00 0.00
0.07 0.09 0.06 0.00 0.00 0.03 0.13 0.12 0.07 0.10 0.04 0.00 0.00 0.01 0.01 0.01 0.04 0.04 0.04 0.06 0.05 0.10 0.14 0.15 0.06 0.01 0.00 0.01 0.01 0.00 0.01 0.01 0.03 0.04 0.08 0.01 0.00 0.00 0.00 0.03 0.03 0.00 0.00 0.00
0.21 0.10 0.07 0.01 0.01 0.03 0.10 0.14 0.08 0.04 0.07 0.02 0.00 0.00 0.02 0.03 0.06 0.09 0.05 0.14 0.09 0.14 0.16 0.15 0.09 0.03 0.01 0.00 0.00 0.00 0.00 0.01 0.01 0.02 0.07 0.02 0.00 0.00 0.00 0.01 0.00 0.00 0.00 0.00
0.35 0.15 0.10 0.08 0.04 0.04 0.11 0.15 0.14 0.05 0.09 0.03 0.00 0.00 0.00 0.01 0.03 0.10 0.15 0.09 0.04 0.04 0.08 0.06 0.05 0.02 0.01 0.00 0.01 0.00 0.00 0.00 0.00 0.00 0.00 0.00 0.00 0.01 0.01 0.00 0.00 0.00 0.00 0.01
0.42 0.24 0.16 0.13 0.07 0.03 0.09 0.10 0.20 0.16 0.30 0.15 0.01 0.00 0.00 0.00 0.00 0.01 0.13 0.13 0.13 0.11 0.09 0.11 0.10 0.07 0.03 0.02 0.01 0.00 0.00 0.00 0.00 0.01 0.00 0.00 0.01 0.02 0.01 0.01 0.01 0.02 0.02 0.01
0.53 0.35 0.27 0.16 0.09 0.07 0.14 0.16 0.23 0.26 0.31 0.27 0.09 0.00 0.00 0.00 0.00 0.00 0.02 0.11 0.09 0.11 0.13 0.19 0.13 0.09 0.06 0.04 0.03 0.03 0.02 0.03 0.00 0.01 0.00 0.01 0.01 0.01 0.01 0.01 0.01 0.00 0.01 0.00
0.63 0.50 0.34 0.25 0.16 0.16 0.24 0.23 0.23 0.21 0.15 0.22 0.07 0.00 0.00 0.00 0.00 0.00 0.00 0.04 0.14 0.18 0.16 0.15 0.11 0.10 0.08 0.04 0.02 0.01 0.01 0.01 0.03 0.01 0.00 0.01 0.00 0.00 0.00 0.00 0.00 0.00 0.00 0.00
0.67 0.57 0.46 0.42 0.27 0.32 0.41 0.50 0.32 0.24 0.20 0.23 0.22 0.08 0.00 0.00 0.00 0.00 0.00 0.01 0.04 0.17 0.30 0.22 0.11 0.04 0.04 0.04 0.02 0.00 0.00 0.00 0.00 0.00 0.00 0.00 0.00 0.01 0.00 0.00 0.00 0.00 0.00 0.00
0.67 0.60 0.57 0.48 0.37 0.31 0.31 0.29 0.14 0.13 0.22 0.55 0.52 0.17 0.02 0.00 0.01 0.01 0.00 0.01 0.01 0.04 0.12 0.17 0.13 0.07 0.13 0.12 0.02 0.00 0.00 0.00 0.00 0.00 0.00 0.00 0.02 0.02 0.00 0.00 0.00 0.00 0.00 0.00
0.74 0.71 0.65 0.63 0.76 0.55 0.40 0.18 0.08 0.05 0.22 0.64 0.60 0.26 0.05 0.01 0.02 0.02 0.01 0.01 0.01 0.01 0.02 0.01 0.00 0.02 0.10 0.09 0.00 0.00 0.00 0.00 0.00 0.00 0.00 0.00 0.01 0.01 0.00 0.00 0.00 0.00 0.00 0.00
0.91 0.94 1.14 1.41 1.27 0.82 0.38 0.24 0.35 0.23 0.24 0.63 0.45 0.10 0.05 0.01 0.02 0.04 0.04 0.04 0.03 0.02 0.01 0.00 0.00 0.00 0.01 0.00 0.00 0.00 0.00 0.00 0.00 0.00 0.00 0.00 0.00 0.00 0.00 0.00 0.00 0.00 0.00 0.00
1.22 1.69 2.28 2.70 1.36 0.43 0.31 0.70 1.19 1.34 0.91 0.30 0.11 0.02 0.03 0.01 0.02 0.06 0.09 0.13 0.07 0.06 0.01 0.00 0.01 0.00 0.00 0.00 0.00 0.00 0.00 0.00 0.00 0.00 0.00 0.00 0.00 0.00 0.00 0.00 0.00 0.00 0.00 0.00
2.10 2.75 1.97 1.14 0.46 0.49 0.60 1.30 1.25 1.64 1.40 0.44 0.01 0.02 0.02 0.00 0.01 0.03 0.04 0.13 0.16 0.08 0.01 0.01 0.01 0.00 0.00 0.00 0.00 0.00 0.00 0.00 0.00 0.00 0.00 0.00 0.00 0.00 0.00 0.00 0.00 0.00 0.00 0.00
1.74 1.03 1.05 1.26 0.56 0.96 1.60 0.99 0.84 0.61 0.49 0.09 0.00 0.01 0.02 0.01 0.02 0.02 0.03 0.04 0.08 0.05 0.05 0.09 0.01 0.00 0.00 0.00 0.00 0.00 0.00 0.00 0.00 0.00 0.00 0.00 0.00 0.00 0.00 0.00 0.00 0.00 0.00 0.00
0.52 0.74 1.54 1.44 0.99 1.05 1.06 0.49 0.57 0.13 0.12 0.02 0.01 0.05 0.05 0.08 0.09 0.08 0.04 0.06 0.05 0.03 0.06 0.04 0.00 0.00 0.00 0.00 0.00 0.00 0.00 0.00 0.00 0.00 0.00 0.00 0.00 0.00 0.00 0.00 0.00 0.00 0.00 0.00
1.08 1.23 1.40 0.76 0.75 0.26 0.08 0.02 0.01 0.01 0.00 0.00 0.01 0.02 0.02 0.04 0.09 0.08 0.07 0.04 0.04 0.04 0.01 0.00 0.00 0.00 0.00 0.00 0.00 0.00 0.00 0.00 0.00 0.00 0.00 0.00 0.00 0.00 0.00 0.00 0.00 0.00 0.00 0.00
0.87 0.47 0.51 0.21 0.12 0.01 0.00 0.01 0.00 0.00 0.00 0.00 0.03 0.05 0.06 0.07 0.08 0.07 0.10 0.13 0.06 0.00 0.00 0.00 0.00 0.00 0.00 0.00 0.00 0.00 0.00 0.00 0.00 0.00 0.00 0.00 0.00 0.00 0.00 0.00 0.00 0.00 0.00 0.00
0.49 0.27 0.10 0.05 0.07 0.05 0.04 0.04 0.01 0.00 0.01 0.10 0.17 0.18 0.24 0.15 0.09 0.11 0.06 0.05 0.01 0.00 0.00 0.00 0.00 0.00 0.00 0.00 0.00 0.00 0.00 0.00 0.00 0.00 0.00 0.00 0.00 0.00 0.00 0.00 0.00 0.00 0.00 0.00
0.47 0.20 0.03 0.03 0.05 0.04 0.02 0.02 0.01 0.01 0.11 0.11 0.13 0.15 0.15 0.08 0.08 0.03 0.00 0.00 0.00 0.00 0.00 0.00 0.00 0.00 0.00 0.00 0.00 0.00 0.00 0.00 0.00 0.00 0.00 0.00 0.00 0.00 0.00 0.00 0.00 0.00 0.00 0.00